Sigfox identifier Datetime Temperature Humidity SNR
003D3BD0 2019-04-12 12:27:16 21 17 16.4
003D3BD0 2019-04-12 11:57:14 21.1 17 16.4
003D3BD0 2019-04-12 11:27:04 21.1 18 16.9
003D3BD0 2019-04-12 10:56:57 21 18 17.3
003D3BD0 2019-04-12 10:26:48 21 18 17.7
003D3BD0 2019-04-12 09:56:39 20.9 18 18.1
003D3BD0 2019-04-12 09:26:35 20.8 18 18.5
003D3BD0 2019-04-12 08:56:27 20.8 18 18.9
003D3BD0 2019-04-12 08:26:22 20.8 18 18.8
003D3BD0 2019-04-12 07:56:15 20.8 18 19.3
003D3BD0 2019-04-12 07:26:10 20.8 18 19.3
003D3BD0 2019-04-12 06:56:05 20.8 18 20.9
003D3BD0 2019-04-12 06:25:57 20.9 18 20.8
003D3BD0 2019-04-12 05:55:50 20.9 18 22
003D3BD0 2019-04-12 05:25:43 20.9 18 22
003D3BD0 2019-04-12 04:55:35 20.9 18 22.2
003D3BD0 2019-04-12 04:25:27 20.9 18 22.3
003D3BD0 2019-04-12 03:55:19 21 18 22.5
003D3BD0 2019-04-12 03:25:12 21 18 22.5
003D3BD0 2019-04-12 02:55:05 21 18 22.5
003D3BD0 2019-04-12 02:24:58 21.1 18 22.6
003D3BD0 2019-04-12 01:54:54 21.1 18 22.3
003D3BD0 2019-04-12 01:24:46 21.2 18 22.3
003D3BD0 2019-04-12 00:54:02 21.2 18 22.4
003D3BD0 2019-04-12 00:23:55 21.3 18 22.4
003D3BD0 2019-04-11 23:53:52 21.3 18 22.4
003D3BD0 2019-04-11 23:23:45 21.4 18 22.3
003D3BD0 2019-04-11 22:53:38 21.4 18 22.2
003D3BD0 2019-04-11 22:23:34 21.4 18 22.2
003D3BD0 2019-04-11 21:53:29 21.4 18 22.3
003D3BD0 2019-04-11 21:23:23 21.4 18 22.3
003D3BD0 2019-04-11 20:53:18 21.4 18 22.1
003D3BD0 2019-04-11 20:23:10 21.3 18 22.3
003D3BD0 2019-04-11 19:53:06 21.3 17 22.2
003D3BD0 2019-04-11 19:23:04 21.2 17 23.1
003D3BD0 2019-04-11 18:52:54 21.2 17 22.3
003D3BD0 2019-04-11 18:22:46 21.2 17 22.4
003D3BD0 2019-04-11 17:52:40 21.2 17 21.5
003D3BD0 2019-04-11 17:22:33 21.2 17 22.5
003D3BD0 2019-04-11 16:52:27 21.2 18 22.5
003D3BD0 2019-04-11 16:22:21 21.2 18 22.5
003D3BD0 2019-04-11 15:52:15 21.1 18 22.3
003D3BD0 2019-04-11 15:22:10 21 18 23.2
003D3BD0 2019-04-11 14:52:04 21 18 23.4
003D3BD0 2019-04-11 14:21:58 20.9 18 23.5
003D3BD0 2019-04-11 13:51:52 20.9 18 23.6
003D3BD0 2019-04-11 13:21:46 20.8 18 23.8
003D3BD0 2019-04-11 12:51:42 20.8 18 23.9
003D3BD0 2019-04-11 12:21:35 20.8 18 23.8
003D3BD0 2019-04-11 11:51:29 20.8 18 23.9
003D3BD0 2019-04-11 11:21:24 20.8 18 23.8
003D3BD0 2019-04-11 10:51:17 20.8 18 23.9
003D3BD0 2019-04-11 10:21:11 20.7 18 23.9
003D3BD0 2019-04-11 09:51:04 20.7 18 23.9
003D3BD0 2019-04-11 09:20:57 20.7 18 23.9
003D3BD0 2019-04-11 08:50:51 20.7 18 23.9
003D3BD0 2019-04-11 08:20:45 20.7 18 23.9
003D3BD0 2019-04-11 07:50:40 20.7 18 23.8
003D3BD0 2019-04-11 07:20:33 20.7 19 23.7
003D3BD0 2019-04-11 06:50:26 20.7 19 23.1
003D3BD0 2019-04-11 06:20:18 20.7 19 23.1
003D3BD0 2019-04-11 05:50:11 20.7 19 23.1
003D3BD0 2019-04-11 05:20:03 20.7 19 23.1
003D3BD0 2019-04-11 04:49:56 20.8 19 22.2
003D3BD0 2019-04-11 04:19:46 20.8 19 22.3
003D3BD0 2019-04-11 03:49:40 20.8 19 22.2
003D3BD0 2019-04-11 03:19:33 20.8 19 22.3
003D3BD0 2019-04-11 02:49:27 20.8 19 21.3
003D3BD0 2019-04-11 02:19:22 20.9 19 21.2
003D3BD0 2019-04-11 01:49:16 20.9 19 21.1
003D3BD0 2019-04-11 01:19:08 20.9 19 21
003D3BD0 2019-04-11 00:49:03 21 19 20.7
003D3BD0 2019-04-11 00:18:55 21.2 19 20.6
003D3BD0 2019-04-11 00:17:45 21 19 20.8
003D3BD0 2019-04-10 23:47:39 21 19 20.9
003D3BD0 2019-04-10 23:17:30 21 19 21
003D3BD0 2019-04-10 22:47:21 20.9 19 20.8
003D3BD0 2019-04-10 22:17:14 20.9 19 20.8
003D3BD0 2019-04-10 21:47:00 20.9 19 20.8
003D3BD0 2019-04-10 21:16:44 20.9 19 20.6
003D3BD0 2019-04-10 20:46:31 20.8 19 20.6
003D3BD0 2019-04-10 20:16:16 20.8 19 20.7
003D3BD0 2019-04-10 19:46:02 20.8 19 20.9
003D3BD0 2019-04-10 19:15:50 20.7 19 20.9
003D3BD0 2019-04-10 18:45:39 20.7 19 20.9
003D3BD0 2019-04-10 18:15:26 20.7 19 20.8
003D3BD0 2019-04-10 17:45:12 20.7 19 20.9
003D3BD0 2019-04-10 17:14:59 20.8 19 20.8
003D3BD0 2019-04-10 16:44:45 20.8 20 20.9
003D3BD0 2019-04-10 16:14:31 20.8 20 20.7
003D3BD0 2019-04-10 15:44:18 20.8 20 20.9
003D3BD0 2019-04-10 15:14:04 20.8 20 22
003D3BD0 2019-04-10 14:43:53 20.9 20 22.8
003D3BD0 2019-04-10 14:13:39 20.9 20 22.9
003D3BD0 2019-04-10 13:43:30 20.8 20 22.9
003D3BD0 2019-04-10 13:13:24 20.8 21 23.1
003D3BD0 2019-04-10 12:43:18 20.8 21 23.2
003D3BD0 2019-04-10 12:13:10 20.8 21 23.2
003D3BD0 2019-04-10 11:43:04 20.7 21 23.2
003D3BD0 2019-04-10 11:12:57 20.7 21 23.1
003D3BD0 2019-04-10 10:42:50 20.7 22 23.2
003D3BD0 2019-04-10 10:12:44 20.7 22 23.3
003D3BD0 2019-04-10 09:42:36 20.6 22 23.4
003D3BD0 2019-04-10 09:12:30 20.6 23 23.4
003D3BD0 2019-04-10 08:42:24 20.5 23 23.5
003D3BD0 2019-04-10 08:12:15 20.5 23 23.5
003D3BD0 2019-04-10 07:42:09 20.6 23 23.5
003D3BD0 2019-04-10 07:12:00 20.6 24 23.5
003D3BD0 2019-04-10 06:41:51 20.5 24 23.7
003D3BD0 2019-04-10 06:11:37 20.6 24 23.7
003D3BD0 2019-04-10 05:41:24 20.5 24 23.9
003D3BD0 2019-04-10 05:11:11 20.6 24 23.8
003D3BD0 2019-04-10 04:40:58 20.5 24 23.8
003D3BD0 2019-04-10 04:10:44 20.6 24 23.9
003D3BD0 2019-04-10 03:40:30 20.6 24 24
003D3BD0 2019-04-10 03:10:18 20.6 25 24
003D3BD0 2019-04-10 02:40:04 20.7 25 23.4
003D3BD0 2019-04-10 02:09:49 20.6 26 22.7
003D3BD0 2019-04-10 01:39:37 20.6 26 22.7
003D3BD0 2019-04-10 01:09:25 20.7 26 22.6
003D3BD0 2019-04-10 00:39:16 20.6 26 22.5
003D3BD0 2019-04-10 00:09:08 20.7 26 22.5
003D3BD0 2019-04-09 23:39:01 20.7 26 22.4
003D3BD0 2019-04-09 23:08:21 20.7 27 22.2
003D3BD0 2019-04-09 22:38:13 20.7 27 22.3
003D3BD0 2019-04-09 22:08:06 20.7 27 22.3
003D3BD0 2019-04-09 21:37:59 20.7 27 22.2
003D3BD0 2019-04-09 21:07:52 20.7 27 22.1
003D3BD0 2019-04-09 20:37:45 20.7 27 22
003D3BD0 2019-04-09 20:07:37 20.7 27 21.9
003D3BD0 2019-04-09 19:37:30 20.7 27 22
003D3BD0 2019-04-09 19:07:22 20.7 27 22
003D3BD0 2019-04-09 18:37:14 20.7 27 21.9
003D3BD0 2019-04-09 18:07:06 20.8 27 21.8
003D3BD0 2019-04-09 17:37:01 20.8 27 21.8
003D3BD0 2019-04-09 17:06:53 20.8 27 21.8
003D3BD0 2019-04-09 16:36:45 20.8 27 21.9
003D3BD0 2019-04-09 16:06:37 20.9 27 21.8
003D3BD0 2019-04-09 15:36:28 20.9 26 21.8
003D3BD0 2019-04-09 15:06:20 20.8 26 21.9
003D3BD0 2019-04-09 14:36:13 20.9 26 21.8
003D3BD0 2019-04-09 14:06:04 20.9 26 21.9
003D3BD0 2019-04-09 13:35:53 20.9 26 21.8
003D3BD0 2019-04-09 13:05:39 20.9 26 21.9
003D3BD0 2019-04-09 12:35:28 20.9 26 21.9
003D3BD0 2019-04-09 12:05:16 20.9 26 22
003D3BD0 2019-04-09 11:35:05 20.9 26 22.1
003D3BD0 2019-04-09 11:04:58 20.8 26 22.2
003D3BD0 2019-04-09 10:34:51 20.8 26 22.1
003D3BD0 2019-04-09 10:04:43 20.8 26 22.1
003D3BD0 2019-04-09 09:34:37 20.7 26 22
003D3BD0 2019-04-09 09:04:33 20.7 25 22.1
003D3BD0 2019-04-09 08:34:27 20.7 25 22.3
003D3BD0 2019-04-09 08:04:19 20.7 25 22.3
003D3BD0 2019-04-09 07:34:12 20.7 25 22.3
003D3BD0 2019-04-09 07:04:06 20.7 25 22.2
003D3BD0 2019-04-09 06:33:58 20.7 25 22.9
003D3BD0 2019-04-09 06:03:47 20.7 25 22.9
003D3BD0 2019-04-09 05:33:36 20.7 25 23
003D3BD0 2019-04-09 05:03:25 20.8 25 22.8
003D3BD0 2019-04-09 04:33:14 20.8 25 22.8
003D3BD0 2019-04-09 04:03:02 20.8 25 22.8
003D3BD0 2019-04-09 03:32:53 20.8 25 22.7
003D3BD0 2019-04-09 03:02:40 20.8 25 22.5
003D3BD0 2019-04-09 02:02:13 20.8 25 22.2
003D3BD0 2019-04-09 01:31:59 20.8 25 22.1
003D3BD0 2019-04-09 01:01:46 20.8 25 21.9
003D3BD0 2019-04-09 00:31:33 20.9 26 21.9
003D3BD0 2019-04-09 00:01:23 20.9 26 21.8
003D3BD0 2019-04-08 23:31:16 20.9 26 21.8
003D3BD0 2019-04-08 23:01:07 20.9 26 21.6
003D3BD0 2019-04-08 22:30:58 20.9 26 21.8
003D3BD0 2019-04-08 22:00:17 20.9 26 21.9
003D3BD0 2019-04-08 21:30:09 20.9 26 21.9
003D3BD0 2019-04-08 21:00:01 20.9 26 21.8
003D3BD0 2019-04-08 20:29:54 20.9 26 21.7
003D3BD0 2019-04-08 19:59:47 20.9 26 21.6
003D3BD0 2019-04-08 19:29:40 20.9 26 22.6
003D3BD0 2019-04-08 18:59:33 20.9 26 22.5
003D3BD0 2019-04-08 18:29:28 20.9 26 21.7
003D3BD0 2019-04-08 17:59:22 20.9 26 21.5
003D3BD0 2019-04-08 17:29:12 20.9 26 21.5
003D3BD0 2019-04-08 16:58:59 20.9 26 21.6
003D3BD0 2019-04-08 16:28:47 21 26 21.5
003D3BD0 2019-04-08 15:58:34 21 26 21.6
003D3BD0 2019-04-08 15:28:21 21 26 21.6
003D3BD0 2019-04-08 14:58:07 21 26 21.6
003D3BD0 2019-04-08 14:27:54 21 26 21.8
003D3BD0 2019-04-08 13:57:40 21 26 22
003D3BD0 2019-04-08 13:27:26 20.9 26 22.1
003D3BD0 2019-04-08 12:57:12 20.8 26 22.2
003D3BD0 2019-04-08 12:26:59 20.7 25 22.3
003D3BD0 2019-04-08 11:56:45 20.7 25 22.3
003D3BD0 2019-04-08 11:26:32 20.7 25 22.3
003D3BD0 2019-04-08 10:56:17 20.6 25 22.5
003D3BD0 2019-04-08 10:26:04 20.5 25 22.3
003D3BD0 2019-04-08 09:55:55 20.5 24 22.2
003D3BD0 2019-04-08 09:25:45 20.4 24 22.1
003D3BD0 2019-04-08 08:55:31 20.4 24 22
003D3BD0 2019-04-08 08:25:19 20.4 24 22
003D3BD0 2019-04-08 07:55:05 20.3 23 22
003D3BD0 2019-04-08 07:24:51 20.4 23 22.1
003D3BD0 2019-04-08 06:54:41 20.4 23 21
003D3BD0 2019-04-08 06:24:35 20.4 23 21.1
003D3BD0 2019-04-08 05:54:27 20.4 23 21.1
003D3BD0 2019-04-08 05:24:21 20.4 23 21.2
003D3BD0 2019-04-08 04:54:13 20.4 23 21
003D3BD0 2019-04-08 04:24:08 20.5 23 20.9
003D3BD0 2019-04-08 03:54:00 20.5 23 21
003D3BD0 2019-04-08 03:23:52 20.5 23 20.9
003D3BD0 2019-04-08 02:53:43 20.5 23 20.9
003D3BD0 2019-04-08 02:23:35 20.6 23 20.9
003D3BD0 2019-04-08 01:53:28 20.6 23 20.8
003D3BD0 2019-04-08 01:23:19 20.6 23 20.6
003D3BD0 2019-04-08 00:53:12 20.6 23 20.4
003D3BD0 2019-04-08 00:23:04 20.6 23 20.1
003D3BD0 2019-04-07 23:52:56 20.7 23 20.3
003D3BD0 2019-04-07 23:22:48 20.7 22 20.2
003D3BD0 2019-04-07 22:52:40 20.7 22 20.1
003D3BD0 2019-04-07 22:22:36 20.8 22 19.9
003D3BD0 2019-04-07 21:52:28 20.9 22 20
003D3BD0 2019-04-07 21:22:20 20.9 22 20
003D3BD0 2019-04-07 20:51:40 20.9 22 20.2
003D3BD0 2019-04-07 20:21:34 20.9 22 20.3
003D3BD0 2019-04-07 19:51:25 21 22 20.1
003D3BD0 2019-04-07 19:21:18 21 22 20
003D3BD0 2019-04-07 18:51:09 20.9 22 19.9
003D3BD0 2019-04-07 18:21:00 20.9 22 19.7
003D3BD0 2019-04-07 17:50:50 20.9 22 19.8
003D3BD0 2019-04-07 17:20:41 20.9 22 19.8
003D3BD0 2019-04-07 16:50:32 20.8 22 19.8
003D3BD0 2019-04-07 16:20:22 20.7 22 19.6
003D3BD0 2019-04-07 15:50:15 20.7 22 19.6
003D3BD0 2019-04-07 15:20:04 20.6 22 19.3
003D3BD0 2019-04-07 14:49:55 20.5 22 19.2
003D3BD0 2019-04-07 14:19:45 20.5 22 19
003D3BD0 2019-04-07 13:49:40 20.5 22 19
003D3BD0 2019-04-07 13:19:32 20.5 21 19.2
003D3BD0 2019-04-07 12:49:24 20.5 21 19.2
003D3BD0 2019-04-07 12:19:19 20.5 21 19.2
003D3BD0 2019-04-07 11:49:13 20.5 21 19
003D3BD0 2019-04-07 11:19:05 20.4 21 19.1
003D3BD0 2019-04-07 10:48:51 20.5 21 19
003D3BD0 2019-04-07 10:18:38 20.5 21 19.1
003D3BD0 2019-04-07 09:48:23 20.5 21 18.9
003D3BD0 2019-04-07 09:18:09 20.5 21 19.1
003D3BD0 2019-04-07 08:47:56 20.5 21 18.8
003D3BD0 2019-04-07 08:17:41 20.5 21 18.8
003D3BD0 2019-04-07 07:47:26 20.5 21 18.8
003D3BD0 2019-04-07 07:17:12 20.6 21 18.9
003D3BD0 2019-04-07 06:46:59 20.6 21 18.9
003D3BD0 2019-04-07 06:16:46 20.6 21 18.8
003D3BD0 2019-04-07 05:46:36 20.6 21 18.7
003D3BD0 2019-04-07 05:16:28 20.7 21 18.5
003D3BD0 2019-04-07 04:46:22 20.7 21 18.4
003D3BD0 2019-04-07 04:16:15 20.8 21 18.2
003D3BD0 2019-04-07 03:46:04 20.8 21 18.3
003D3BD0 2019-04-07 03:15:53 20.8 21 18.2
003D3BD0 2019-04-07 02:45:44 20.8 21 18.4
003D3BD0 2019-04-07 02:15:37 20.9 21 18.7
003D3BD0 2019-04-07 01:45:30 21 21 18.8
003D3BD0 2019-04-07 01:15:23 21 21 18.9
003D3BD0 2019-04-07 00:45:14 21 21 18.7
003D3BD0 2019-04-07 00:15:07 21.1 21 19
003D3BD0 2019-04-06 23:44:58 21.1 21 19.1
003D3BD0 2019-04-06 23:14:47 21.2 21 19.2
003D3BD0 2019-04-06 22:44:38 21.2 21 19.1
003D3BD0 2019-04-06 22:14:29 21.2 21 19.3
003D3BD0 2019-04-06 21:44:21 21.3 21 19.4
003D3BD0 2019-04-06 21:14:12 21.3 21 19.4
003D3BD0 2019-04-06 20:44:06 21.3 21 19.5
003D3BD0 2019-04-06 20:13:59 21.6 21 19.5
003D3BD0 2019-04-06 20:12:51 21.3 21 19.5
003D3BD0 2019-04-06 19:42:40 21.3 21 19.5
003D3BD0 2019-04-06 19:12:32 21.3 21 19.4
003D3BD0 2019-04-06 18:42:26 21.2 21 19.4
003D3BD0 2019-04-06 18:12:16 21.2 21 19.4
003D3BD0 2019-04-06 17:42:08 21.2 21 21
003D3BD0 2019-04-06 17:11:59 21.1 21 21.1
003D3BD0 2019-04-06 16:41:51 21 21 22.3
003D3BD0 2019-04-06 16:11:46 20.8 21 22.3
003D3BD0 2019-04-06 15:41:41 20.7 21 22.4
003D3BD0 2019-04-06 15:11:31 20.6 21 22.5
003D3BD0 2019-04-06 14:41:23 20.6 21 22.4
003D3BD0 2019-04-06 14:11:17 20.6 21 22.3
003D3BD0 2019-04-06 13:41:08 20.6 21 22.3
003D3BD0 2019-04-06 13:11:00 20.6 21 22.2
003D3BD0 2019-04-06 12:40:53 20.6 21 22.3
003D3BD0 2019-04-06 12:10:45 20.6 21 22.3
003D3BD0 2019-04-06 11:40:38 20.6 21 22.2
003D3BD0 2019-04-06 11:10:30 20.5 21 22.3
003D3BD0 2019-04-06 10:40:22 20.6 20 22.3
003D3BD0 2019-04-06 10:10:15 20.6 20 23
003D3BD0 2019-04-06 09:40:07 20.6 20 23
003D3BD0 2019-04-06 09:09:59 20.6 20 23
003D3BD0 2019-04-06 08:39:50 20.6 20 22.9
003D3BD0 2019-04-06 08:09:42 20.6 20 22.9
003D3BD0 2019-04-06 07:39:34 20.7 20 22.9
003D3BD0 2019-04-06 07:09:26 20.7 20 22.9
003D3BD0 2019-04-06 06:39:18 20.7 20 22.9
003D3BD0 2019-04-06 06:09:12 20.8 20 22.9
003D3BD0 2019-04-06 05:39:01 20.8 20 23
003D3BD0 2019-04-06 05:08:53 20.9 20 23
003D3BD0 2019-04-06 04:38:46 20.9 20 22.9
003D3BD0 2019-04-06 04:08:39 21 20 21.9
003D3BD0 2019-04-06 03:38:31 21 20 21.9
003D3BD0 2019-04-06 03:08:24 21.1 20 21.7
003D3BD0 2019-04-06 02:38:16 21.1 20 21.6
003D3BD0 2019-04-06 02:08:08 21.2 20 21.6
003D3BD0 2019-04-06 01:38:00 21.2 20 21.6
003D3BD0 2019-04-06 01:07:53 21.3 20 21.9
003D3BD0 2019-04-06 00:37:46 21.4 20 21.9
003D3BD0 2019-04-06 00:07:35 21.5 19 21.9
003D3BD0 2019-04-05 23:37:28 21.6 19 22.8
003D3BD0 2019-04-05 23:07:18 21.6 19 22.8
003D3BD0 2019-04-05 22:37:10 21.7 19 22.7
003D3BD0 2019-04-05 22:07:04 21.8 19 22.7
003D3BD0 2019-04-05 21:36:55 21.9 19 21.8
003D3BD0 2019-04-05 21:06:47 21.9 19 21.8
003D3BD0 2019-04-05 20:36:39 21.9 19 21.8
003D3BD0 2019-04-05 20:06:32 21.9 19 21.9
003D3BD0 2019-04-05 19:36:24 21.9 19 21.8
003D3BD0 2019-04-05 19:05:44 21.8 20 21.7
003D3BD0 2019-04-05 18:35:36 21.7 19 21.7
003D3BD0 2019-04-05 18:05:30 21.7 19 21.6
003D3BD0 2019-04-05 17:35:25 21.7 20 21.6
003D3BD0 2019-04-05 17:05:17 21.7 20 20.3
003D3BD0 2019-04-05 16:35:09 21.7 21 20.4
003D3BD0 2019-04-05 16:05:00 21.6 21 20.6
003D3BD0 2019-04-05 15:34:55 21.5 21 20.7
003D3BD0 2019-04-05 15:04:45 21.4 21 20.7
003D3BD0 2019-04-05 14:34:38 21.4 22 20.9
003D3BD0 2019-04-05 14:04:31 21.3 21 21.2
003D3BD0 2019-04-05 13:34:23 21.3 21 21.3
003D3BD0 2019-04-05 13:04:15 21.3 22 21
003D3BD0 2019-04-05 12:34:07 21.3 22 21.1
003D3BD0 2019-04-05 12:04:01 21.3 22 21
003D3BD0 2019-04-05 11:33:52 21.2 22 19.5
003D3BD0 2019-04-05 11:03:45 21.2 22 19.6
003D3BD0 2019-04-05 10:33:39 21.1 21 19.6
003D3BD0 2019-04-05 10:03:31 21.1 21 19.8
003D3BD0 2019-04-05 09:33:25 21.1 20 21.2
003D3BD0 2019-04-05 09:03:19 21 20 21.3
003D3BD0 2019-04-05 08:33:13 21 19 21.3
003D3BD0 2019-04-05 08:03:07 21 19 21.1
003D3BD0 2019-04-05 07:33:01 21.1 19 21.3
003D3BD0 2019-04-05 07:02:56 21.1 19 21.4
003D3BD0 2019-04-05 06:32:49 21.1 19 21.4
003D3BD0 2019-04-05 06:02:41 21.1 19 21.4
003D3BD0 2019-04-05 05:32:34 21.2 19 21.4
003D3BD0 2019-04-05 05:02:30 21.2 19 21.4
003D3BD0 2019-04-05 04:32:25 21.2 19 21.3
003D3BD0 2019-04-05 04:02:18 21.2 19 21.4
003D3BD0 2019-04-05 03:32:08 21.3 19 21.3
003D3BD0 2019-04-05 03:01:56 21.3 19 21.2
003D3BD0 2019-04-05 02:31:44 21.3 19 21.2
003D3BD0 2019-04-05 02:01:38 21.3 19 21
003D3BD0 2019-04-05 01:31:31 21.4 19 20.7
003D3BD0 2019-04-05 01:01:25 21.4 19 20.7
003D3BD0 2019-04-05 00:31:21 21.5 19 20.8
003D3BD0 2019-04-05 00:01:10 21.5 19 21
003D3BD0 2019-04-04 23:30:59 21.5 19 20.9
003D3BD0 2019-04-04 23:00:48 21.5 19 20.8
003D3BD0 2019-04-04 22:30:36 21.6 19 20.6
003D3BD0 2019-04-04 22:00:24 21.6 19 20.7
003D3BD0 2019-04-04 21:30:12 21.6 18 20.8
003D3BD0 2019-04-04 20:59:59 21.6 18 19
003D3BD0 2019-04-04 20:29:55 21.6 18 18.8
003D3BD0 2019-04-04 19:59:49 21.5 18 19.1
003D3BD0 2019-04-04 19:29:42 21.5 18 19.3
003D3BD0 2019-04-04 18:59:36 21.5 18 19.3
003D3BD0 2019-04-04 18:29:28 21.8 18 19.3
003D3BD0 2019-04-04 18:28:18 21.5 18 19.6
003D3BD0 2019-04-04 17:58:08 21.6 19 19.7
003D3BD0 2019-04-04 17:27:55 21.5 19 19.9
003D3BD0 2019-04-04 16:57:43 21.5 19 19.9
003D3BD0 2019-04-04 16:27:31 21.5 19 20.1
003D3BD0 2019-04-04 15:57:19 21.4 20 20.1
003D3BD0 2019-04-04 15:27:09 21.3 20 20.4
003D3BD0 2019-04-04 14:56:57 21.3 20 20.5
003D3BD0 2019-04-04 14:26:46 21.2 20 20.5
003D3BD0 2019-04-04 13:56:42 21.2 20 20.5
003D3BD0 2019-04-04 13:26:37 21.1 20 20.7
003D3BD0 2019-04-04 12:56:31 21.1 20 20.7
003D3BD0 2019-04-04 12:26:25 21.1 20 20.8
003D3BD0 2019-04-04 11:56:19 21 20 20.7
003D3BD0 2019-04-04 11:26:14 21 20 20.9
003D3BD0 2019-04-04 10:56:07 21 20 21.1
003D3BD0 2019-04-04 10:26:02 21 20 21.3
003D3BD0 2019-04-04 09:55:55 21 20 21.2
003D3BD0 2019-04-04 09:25:49 21 20 21.2
003D3BD0 2019-04-04 08:55:41 21 20 21.3
003D3BD0 2019-04-04 08:25:35 21 20 21.3
003D3BD0 2019-04-04 07:55:29 21 20 21.1
003D3BD0 2019-04-04 07:25:23 21 20 21
003D3BD0 2019-04-04 06:55:17 21.1 20 21
003D3BD0 2019-04-04 06:25:13 21.1 20 20.9
003D3BD0 2019-04-04 05:55:09 21.1 20 20.8
003D3BD0 2019-04-04 05:25:03 21.1 20 20.8
003D3BD0 2019-04-04 04:54:58 21.2 20 20.9
003D3BD0 2019-04-04 04:24:50 21.2 20 20.9
003D3BD0 2019-04-04 03:54:44 21.2 20 20.8
003D3BD0 2019-04-04 03:24:37 21.3 20 20.7
003D3BD0 2019-04-04 02:54:30 21.3 20 20.5
003D3BD0 2019-04-04 02:24:25 21.4 20 20.5
003D3BD0 2019-04-04 01:54:18 21.4 20 20.7
003D3BD0 2019-04-04 01:24:12 21.4 20 20.8
003D3BD0 2019-04-04 00:54:07 21.5 20 20.8
003D3BD0 2019-04-04 00:23:56 21.5 20 20.8
003D3BD0 2019-04-03 23:53:43 21.6 19 20.9
003D3BD0 2019-04-03 23:23:30 21.6 19 20.7
003D3BD0 2019-04-03 22:53:18 21.6 19 20.7
003D3BD0 2019-04-03 22:23:05 21.6 19 20.7
003D3BD0 2019-04-03 21:52:51 21.7 19 21.7
003D3BD0 2019-04-03 21:22:41 21.7 19 21.8
003D3BD0 2019-04-03 20:52:30 21.7 19 21.7
003D3BD0 2019-04-03 20:22:17 21.7 19 21.7
003D3BD0 2019-04-03 19:52:11 21.7 19 21.7
003D3BD0 2019-04-03 19:22:04 21.7 19 21.8
003D3BD0 2019-04-03 18:51:56 21.8 19 21.9
003D3BD0 2019-04-03 18:21:48 21.8 19 21.8
003D3BD0 2019-04-03 17:51:42 22.1 20 22
003D3BD0 2019-04-03 17:50:31 21.9 20 21.9
003D3BD0 2019-04-03 17:20:25 21.9 20 22.1
003D3BD0 2019-04-03 16:50:19 21.8 21 22
003D3BD0 2019-04-03 16:20:14 21.7 21 22
003D3BD0 2019-04-03 15:50:07 21.6 21 21.9
003D3BD0 2019-04-03 15:20:00 21.4 21 22
003D3BD0 2019-04-03 14:49:54 21.3 21 22.1
003D3BD0 2019-04-03 14:19:49 21.3 21 22.1
003D3BD0 2019-04-03 13:49:45 21.2 21 22
003D3BD0 2019-04-03 13:19:36 21.2 21 22
003D3BD0 2019-04-03 12:49:33 21.2 21 21.9
003D3BD0 2019-04-03 12:19:27 21.2 21 21.8
003D3BD0 2019-04-03 11:49:20 21.1 21 21.7
003D3BD0 2019-04-03 11:19:12 21.1 21 21.7
003D3BD0 2019-04-03 10:49:04 21 21 21.6
003D3BD0 2019-04-03 10:18:57 21 21 21.5
003D3BD0 2019-04-03 09:48:49 20.9 21 20.1
003D3BD0 2019-04-03 09:18:43 20.8 20 19.8
003D3BD0 2019-04-03 08:48:40 20.8 20 19.7
003D3BD0 2019-04-03 08:18:32 20.8 20 19.9
003D3BD0 2019-04-03 07:48:24 20.8 20 20.1
003D3BD0 2019-04-03 07:18:17 20.9 20 20.3
003D3BD0 2019-04-03 06:48:09 20.9 20 20.4
003D3BD0 2019-04-03 06:18:02 20.9 20 20.3
003D3BD0 2019-04-03 05:47:56 20.9 20 20
003D3BD0 2019-04-03 05:17:50 20.9 20 20
003D3BD0 2019-04-03 04:47:43 20.9 20 19.7
003D3BD0 2019-04-03 04:17:39 20.9 20 19.6
003D3BD0 2019-04-03 03:47:32 21 19 19.7
003D3BD0 2019-04-03 03:17:25 21 19 19.6
003D3BD0 2019-04-03 02:47:20 21 19 19.5
003D3BD0 2019-04-03 02:17:10 21 19 19.4
003D3BD0 2019-04-03 01:46:57 21.1 19 19.2
003D3BD0 2019-04-03 01:16:44 21.1 19 19.1
003D3BD0 2019-04-03 00:46:33 21.2 19 19.3
003D3BD0 2019-04-03 00:16:20 21.2 19 19.3
003D3BD0 2019-04-02 23:46:10 21.2 19 19.4
003D3BD0 2019-04-02 23:15:55 21.2 19 19.3
003D3BD0 2019-04-02 22:45:44 21.3 19 19.4
003D3BD0 2019-04-02 22:15:33 21.3 19 19.4
003D3BD0 2019-04-02 21:45:20 21.4 18 19.3
003D3BD0 2019-04-02 21:15:08 21.4 18 19.4
003D3BD0 2019-04-02 20:44:58 21.4 18 19.3
003D3BD0 2019-04-02 20:14:46 21.4 18 19.2
003D3BD0 2019-04-02 19:44:32 21.4 18 19
003D3BD0 2019-04-02 19:14:23 21.4 18 18.9
003D3BD0 2019-04-02 18:44:11 21.4 18 18.5
003D3BD0 2019-04-02 18:13:58 21.5 19 18.5
003D3BD0 2019-04-02 17:43:45 21.5 19 18.5
003D3BD0 2019-04-02 17:13:34 21.5 20 18.8
003D3BD0 2019-04-02 16:42:49 21.5 20 18.6
003D3BD0 2019-04-02 16:12:41 21.5 21 19
003D3BD0 2019-04-02 15:42:34 21.3 22 19.2
003D3BD0 2019-04-02 15:12:22 21.2 22 19
003D3BD0 2019-04-02 14:42:10 21.1 23 19.1
003D3BD0 2019-04-02 14:11:58 21 23 19.2
003D3BD0 2019-04-02 13:41:52 20.9 22 19.1
003D3BD0 2019-04-02 13:11:45 20.9 22 19.2
003D3BD0 2019-04-02 12:41:39 20.9 22 19.2
003D3BD0 2019-04-02 12:11:33 20.9 22 18.9
003D3BD0 2019-04-02 11:41:28 20.9 22 19
003D3BD0 2019-04-02 11:11:23 20.8 22 19
003D3BD0 2019-04-02 10:41:16 20.8 21 19.3
003D3BD0 2019-04-02 10:11:09 20.8 21 19.2
003D3BD0 2019-04-02 09:41:04 20.7 21 19.2
003D3BD0 2019-04-02 09:10:58 20.7 21 19.2
003D3BD0 2019-04-02 08:40:51 20.7 20 19.3
003D3BD0 2019-04-02 08:10:44 20.7 20 19.5
003D3BD0 2019-04-02 07:40:38 20.7 20 19.4
003D3BD0 2019-04-02 07:10:32 20.7 20 19.4
003D3BD0 2019-04-02 06:40:25 20.7 20 19.3
003D3BD0 2019-04-02 06:10:19 20.7 19 19.4
003D3BD0 2019-04-02 05:40:13 20.8 19 19.3
003D3BD0 2019-04-02 05:10:08 20.8 19 19.5
003D3BD0 2019-04-02 04:40:01 20.8 19 19.3
003D3BD0 2019-04-02 04:09:53 20.8 19 19.3
003D3BD0 2019-04-02 03:39:47 20.8 19 19.2
003D3BD0 2019-04-02 03:09:40 20.9 19 18.9
003D3BD0 2019-04-02 02:39:35 20.9 19 19.2
003D3BD0 2019-04-02 02:09:29 20.9 18 19.1
003D3BD0 2019-04-02 01:39:22 21 18 18.9
003D3BD0 2019-04-02 01:09:14 21 18 19
003D3BD0 2019-04-02 00:39:08 21 18 18.8
003D3BD0 2019-04-02 00:09:02 21.1 18 19.2
003D3BD0 2019-04-01 23:38:57 21.1 18 19.2
003D3BD0 2019-04-01 23:08:50 21.1 18 19.1
003D3BD0 2019-04-01 22:38:46 21.1 18 19.1
003D3BD0 2019-04-01 22:08:39 21.2 17 18.7
003D3BD0 2019-04-01 21:38:32 21.2 17 18.8
003D3BD0 2019-04-01 21:08:27 21.2 17 18.7
003D3BD0 2019-04-01 20:38:19 21.2 17 18.8
003D3BD0 2019-04-01 20:08:13 21.2 17 18.9
003D3BD0 2019-04-01 19:38:06 21.2 17 19
003D3BD0 2019-04-01 19:07:59 21.2 17 19.3
003D3BD0 2019-04-01 18:37:52 21.2 17 19.3
003D3BD0 2019-04-01 18:07:43 21.2 17 19.5
003D3BD0 2019-04-01 17:37:37 21.2 18 19.6
003D3BD0 2019-04-01 17:07:26 21.1 18 19.9
003D3BD0 2019-04-01 16:37:17 21 18 19.8
003D3BD0 2019-04-01 16:07:10 20.9 18 20.1
003D3BD0 2019-04-01 15:36:33 20.8 19 20.2
003D3BD0 2019-04-01 15:06:25 20.7 19 20.5
003D3BD0 2019-04-01 14:36:18 20.7 20 20.5
003D3BD0 2019-04-01 14:06:11 20.6 20 20.6
003D3BD0 2019-04-01 13:36:04 20.6 21 20.9
003D3BD0 2019-04-01 13:05:58 20.6 21 21.1
003D3BD0 2019-04-01 12:35:51 20.6 21 21.2
003D3BD0 2019-04-01 12:05:46 20.6 22 21.1
003D3BD0 2019-04-01 11:35:41 20.6 22 21.3
003D3BD0 2019-04-01 11:05:36 20.6 22 21.3
003D3BD0 2019-04-01 10:35:27 20.6 22 21.4
003D3BD0 2019-04-01 10:05:22 20.5 22 21.6
003D3BD0 2019-04-01 09:35:16 20.5 22 21.7
003D3BD0 2019-04-01 09:05:08 20.5 23 21.7
003D3BD0 2019-04-01 08:35:01 20.5 23 21.7
003D3BD0 2019-04-01 08:04:52 20.5 23 21.9
003D3BD0 2019-04-01 07:34:44 20.5 23 21.9
003D3BD0 2019-04-01 07:04:36 20.5 23 21.9
003D3BD0 2019-04-01 06:34:30 20.5 23 21.9
003D3BD0 2019-04-01 06:04:22 20.5 23 21.9
003D3BD0 2019-04-01 05:34:15 20.5 23 21.8
003D3BD0 2019-04-01 05:04:08 20.5 23 21.7
003D3BD0 2019-04-01 04:34:01 20.5 23 21.8
003D3BD0 2019-04-01 04:03:55 20.5 24 21.7
003D3BD0 2019-04-01 03:33:47 20.5 24 21.8
003D3BD0 2019-04-01 03:03:41 20.5 24 21.7
003D3BD0 2019-04-01 02:33:33 20.6 24 21.7
003D3BD0 2019-04-01 02:03:26 20.6 24 21.6
003D3BD0 2019-04-01 01:33:19 20.6 24 21.6
003D3BD0 2019-04-01 01:03:06 20.6 24 21.7
003D3BD0 2019-04-01 00:32:53 20.7 25 21.5
003D3BD0 2019-04-01 00:02:41 20.7 25 21.5
003D3BD0 2019-03-31 23:32:27 20.7 25 21.5
003D3BD0 2019-03-31 23:02:16 20.7 25 21.4
003D3BD0 2019-03-31 22:32:03 20.8 26 21.5
003D3BD0 2019-03-31 22:01:51 20.8 26 21.5
003D3BD0 2019-03-31 21:31:41 20.8 26 21.4
003D3BD0 2019-03-31 21:01:29 20.9 26 21.6
003D3BD0 2019-03-31 20:31:18 20.9 27 21.7
003D3BD0 2019-03-31 20:01:06 20.9 27 21.7
003D3BD0 2019-03-31 19:30:52 20.8 27 21.7
003D3BD0 2019-03-31 19:00:43 20.8 27 21.7
003D3BD0 2019-03-31 18:30:29 20.8 27 21.7
003D3BD0 2019-03-31 18:00:17 20.7 28 21.9
003D3BD0 2019-03-31 17:30:09 20.7 28 22
003D3BD0 2019-03-31 17:00:05 20.6 27 22
003D3BD0 2019-03-31 16:29:57 20.6 27 22
003D3BD0 2019-03-31 15:59:49 20.6 27 21.9
003D3BD0 2019-03-31 15:29:42 20.6 27 21.9
003D3BD0 2019-03-31 14:59:33 20.6 27 22
003D3BD0 2019-03-31 14:28:53 20.6 27 22.1
003D3BD0 2019-03-31 13:58:46 20.6 27 22.1
003D3BD0 2019-03-31 13:28:38 20.6 27 22.1
003D3BD0 2019-03-31 12:58:31 20.6 27 22
003D3BD0 2019-03-31 12:28:24 20.6 27 22
003D3BD0 2019-03-31 11:58:18 20.6 27 22
003D3BD0 2019-03-31 11:28:11 20.6 27 21.9
003D3BD0 2019-03-31 10:58:06 20.6 27 21.9
003D3BD0 2019-03-31 10:28:01 20.6 27 22
003D3BD0 2019-03-31 09:57:57 20.6 27 22.1
003D3BD0 2019-03-31 09:27:51 20.6 27 22.1
003D3BD0 2019-03-31 08:57:44 20.6 27 21.9
003D3BD0 2019-03-31 08:27:39 20.6 27 21.9
003D3BD0 2019-03-31 07:57:33 20.6 28 21.9
003D3BD0 2019-03-31 07:27:26 20.7 28 21.9
003D3BD0 2019-03-31 06:57:21 20.6 28 21.9
003D3BD0 2019-03-31 06:27:14 20.6 28 21.9
003D3BD0 2019-03-31 05:57:08 20.6 28 22
003D3BD0 2019-03-31 05:27:02 20.6 28 21.9
003D3BD0 2019-03-31 04:56:57 20.6 27 21.7
003D3BD0 2019-03-31 04:26:50 20.7 27 21.9
003D3BD0 2019-03-31 02:56:42 20.6 27 21.9
003D3BD0 2019-03-31 02:26:33 20.7 27 21.7
003D3BD0 2019-03-31 01:56:24 20.7 27 21.7
003D3BD0 2019-03-31 01:26:15 20.7 27 21.6
003D3BD0 2019-03-31 00:56:07 20.7 27 21.6
003D3BD0 2019-03-31 00:25:59 20.7 27 21.6
003D3BD0 2019-03-30 23:55:50 20.7 27 21.6
003D3BD0 2019-03-30 23:25:43 20.8 27 21.6
003D3BD0 2019-03-30 22:55:35 20.8 27 21.8
003D3BD0 2019-03-30 22:25:27 20.8 27 21.6
003D3BD0 2019-03-30 21:55:19 20.8 27 21.6
003D3BD0 2019-03-30 21:25:12 20.9 27 21.6
003D3BD0 2019-03-30 20:55:05 20.9 27 21.4
003D3BD0 2019-03-30 20:24:58 20.9 27 21.1
003D3BD0 2019-03-30 19:54:50 20.9 27 21.2
003D3BD0 2019-03-30 19:24:43 21 27 21.3
003D3BD0 2019-03-30 18:54:37 21 27 21.2
003D3BD0 2019-03-30 18:24:30 21 27 21
003D3BD0 2019-03-30 17:54:23 21 27 20.8
003D3BD0 2019-03-30 17:24:16 21 27 20.7
003D3BD0 2019-03-30 16:54:09 21 27 20.7
003D3BD0 2019-03-30 16:24:05 21 27 20.4
003D3BD0 2019-03-30 15:53:58 21 27 20.4
003D3BD0 2019-03-30 15:23:51 20.9 27 20.3
003D3BD0 2019-03-30 14:53:44 20.9 27 20.2
003D3BD0 2019-03-30 14:23:36 20.9 27 20.3
003D3BD0 2019-03-30 13:53:31 20.9 27 20.6
003D3BD0 2019-03-30 13:23:24 20.8 27 20.5
003D3BD0 2019-03-30 12:53:19 20.8 27 20.3
003D3BD0 2019-03-30 12:22:39 20.8 27 20.4
003D3BD0 2019-03-30 11:52:32 20.8 27 20.3
003D3BD0 2019-03-30 11:22:26 20.7 27 20.3
003D3BD0 2019-03-30 10:52:20 20.7 27 20
003D3BD0 2019-03-30 10:22:16 20.7 27 20.3
003D3BD0 2019-03-30 09:52:11 20.7 27 20.3
003D3BD0 2019-03-30 09:22:06 20.7 27 20.3
003D3BD0 2019-03-30 08:52:00 20.7 27 20.3
003D3BD0 2019-03-30 08:21:53 20.7 27 20.4
003D3BD0 2019-03-30 07:51:46 20.7 27 20.3
003D3BD0 2019-03-30 07:21:41 20.7 27 20.2
003D3BD0 2019-03-30 06:51:35 20.7 27 20.3
003D3BD0 2019-03-30 06:21:28 20.7 27 20.3
003D3BD0 2019-03-30 05:51:25 20.7 27 20.3
003D3BD0 2019-03-30 05:21:20 20.8 27 20.5
003D3BD0 2019-03-30 04:51:15 20.8 27 20.4
003D3BD0 2019-03-30 04:21:10 20.8 27 20.5
003D3BD0 2019-03-30 03:51:04 20.8 27 20.6
003D3BD0 2019-03-30 03:20:58 20.8 27 20.7
003D3BD0 2019-03-30 02:50:50 20.8 28 20.4
003D3BD0 2019-03-30 02:20:44 20.9 28 20.3
003D3BD0 2019-03-30 01:50:38 20.9 28 20
003D3BD0 2019-03-30 01:20:32 20.9 28 20.2
003D3BD0 2019-03-30 00:50:20 20.9 28 20.3
003D3BD0 2019-03-30 00:20:07 21 28 20.2
003D3BD0 2019-03-29 23:49:54 21 28 20.1
003D3BD0 2019-03-29 23:19:42 21 28 19.9
003D3BD0 2019-03-29 22:49:30 21 28 19.8
003D3BD0 2019-03-29 22:19:19 21.1 28 19.8
003D3BD0 2019-03-29 21:49:06 21.1 28 19.5
003D3BD0 2019-03-29 21:18:54 21.1 28 19.7
003D3BD0 2019-03-29 20:48:41 21 28 19.6
003D3BD0 2019-03-29 20:18:28 21 28 19.8
003D3BD0 2019-03-29 19:48:17 21 28 19.6
003D3BD0 2019-03-29 19:18:04 21 28 19.6
003D3BD0 2019-03-29 18:47:53 21 28 19.4
003D3BD0 2019-03-29 18:17:44 21 28 19.1
003D3BD0 2019-03-29 17:47:32 21.1 28 19.1
003D3BD0 2019-03-29 17:17:22 21.1 28 19
003D3BD0 2019-03-29 16:47:09 21.1 28 18.8
003D3BD0 2019-03-29 16:16:57 21.1 28 18.5
003D3BD0 2019-03-29 15:46:47 21.2 28 18.3
003D3BD0 2019-03-29 15:16:37 21.1 28 18
003D3BD0 2019-03-29 14:46:26 21.1 28 18
003D3BD0 2019-03-29 14:16:16 21.1 27 18
003D3BD0 2019-03-29 13:46:09 21.1 28 18
003D3BD0 2019-03-29 13:16:02 21 27 17.8
003D3BD0 2019-03-29 12:45:56 21 27 17.4
003D3BD0 2019-03-29 12:15:51 21 27 17.3
003D3BD0 2019-03-29 11:45:43 21 27 17.4
003D3BD0 2019-03-29 11:15:04 21 27 17.7
003D3BD0 2019-03-29 10:44:58 21 27 18.2
003D3BD0 2019-03-29 10:14:52 20.9 26 18.3
003D3BD0 2019-03-29 09:44:45 20.9 26 18.3
003D3BD0 2019-03-29 09:14:40 20.8 26 18.5
003D3BD0 2019-03-29 08:44:34 20.8 25 18.4
003D3BD0 2019-03-29 08:14:27 20.8 25 18.3
003D3BD0 2019-03-29 07:44:23 20.8 25 18.5
003D3BD0 2019-03-29 07:14:14 20.7 25 18.4
003D3BD0 2019-03-29 06:44:10 20.8 25 18.8
003D3BD0 2019-03-29 06:14:04 20.8 25 19
003D3BD0 2019-03-29 05:43:55 20.8 25 19.3
003D3BD0 2019-03-29 05:13:46 20.9 25 19.3
003D3BD0 2019-03-29 04:43:34 20.9 25 19.4
003D3BD0 2019-03-29 04:13:21 20.9 25 19.7
003D3BD0 2019-03-29 03:43:08 21 25 19.7
003D3BD0 2019-03-29 03:12:57 21 25 19.6
003D3BD0 2019-03-29 02:42:47 21.1 25 19.6
003D3BD0 2019-03-29 02:12:36 21.1 25 19.6
003D3BD0 2019-03-29 01:42:24 21.1 25 19.6
003D3BD0 2019-03-29 01:12:17 21.1 25 19.7
003D3BD0 2019-03-29 00:42:02 21.1 24 19.7
003D3BD0 2019-03-29 00:11:51 21.1 24 19.6
003D3BD0 2019-03-28 23:41:44 21.1 24 19.5
003D3BD0 2019-03-28 23:11:38 21.1 24 19.2
003D3BD0 2019-03-28 22:41:33 21.1 24 19.2
003D3BD0 2019-03-28 22:11:28 21.2 24 18.8
003D3BD0 2019-03-28 21:41:24 21.2 24 18.9
003D3BD0 2019-03-28 21:11:18 21.2 24 18.9
003D3BD0 2019-03-28 20:41:12 21.2 24 18.8
003D3BD0 2019-03-28 20:11:06 21.2 24 18.7
003D3BD0 2019-03-28 19:41:01 21.2 24 18.5
003D3BD0 2019-03-28 19:10:55 21.2 24 18.5
003D3BD0 2019-03-28 18:40:49 21.2 24 18.5
003D3BD0 2019-03-28 18:10:43 21.2 24 18.5
003D3BD0 2019-03-28 17:40:37 21.3 24 18.3
003D3BD0 2019-03-28 17:10:31 21.2 24 19.9
003D3BD0 2019-03-28 16:40:24 21.2 24 19.9
003D3BD0 2019-03-28 16:10:18 21.2 23 19.8
003D3BD0 2019-03-28 15:40:11 21.2 23 19.6
003D3BD0 2019-03-28 15:10:05 21.1 23 19.7
003D3BD0 2019-03-28 14:39:57 21.1 23 19.7
003D3BD0 2019-03-28 14:09:50 21.1 23 20.1
003D3BD0 2019-03-28 13:39:44 21 22 20.3
003D3BD0 2019-03-28 13:09:40 21 22 20.4
003D3BD0 2019-03-28 12:39:31 20.9 21 20.3
003D3BD0 2019-03-28 12:09:25 20.9 21 20.4
003D3BD0 2019-03-28 11:39:22 21 21 20.7
003D3BD0 2019-03-28 11:09:15 20.9 21 20.8
003D3BD0 2019-03-28 10:39:09 20.9 21 20.9
003D3BD0 2019-03-28 10:08:30 20.9 20 21.1
003D3BD0 2019-03-28 09:38:26 20.8 20 21.1
003D3BD0 2019-03-28 09:08:21 20.8 20 21
003D3BD0 2019-03-28 08:38:18 20.8 20 21.2
003D3BD0 2019-03-28 08:08:12 20.8 19 21.3
003D3BD0 2019-03-28 07:38:06 20.8 19 21.4
003D3BD0 2019-03-28 07:08:01 20.8 19 21.5
003D3BD0 2019-03-28 06:38:00 20.7 19 21.3
003D3BD0 2019-03-28 06:07:56 20.7 19 21.5
003D3BD0 2019-03-28 05:37:48 20.8 19 20.1
003D3BD0 2019-03-28 05:07:41 20.8 19 20.1
003D3BD0 2019-03-28 04:37:36 20.8 19 20
003D3BD0 2019-03-28 04:07:26 20.8 18 20
003D3BD0 2019-03-28 03:37:17 20.8 18 19.9
003D3BD0 2019-03-28 03:07:04 20.8 18 19.9
003D3BD0 2019-03-28 02:36:54 20.8 18 19.5
003D3BD0 2019-03-28 02:06:43 20.9 18 19.2
003D3BD0 2019-03-28 01:36:30 20.9 18 19.1
003D3BD0 2019-03-28 01:06:25 20.9 18 20.8
003D3BD0 2019-03-28 00:36:18 20.9 17 22
003D3BD0 2019-03-28 00:06:11 20.9 17 22.9
003D3BD0 2019-03-27 23:36:03 21 17 22.9
003D3BD0 2019-03-27 23:05:55 21 17 22.9
003D3BD0 2019-03-27 22:35:49 21 17 22.9
003D3BD0 2019-03-27 22:05:43 21 16 22.8
003D3BD0 2019-03-27 21:35:37 21.1 16 22.7
003D3BD0 2019-03-27 21:05:32 21.1 16 22.8
003D3BD0 2019-03-27 20:35:24 21.1 16 22.8
003D3BD0 2019-03-27 20:05:18 21.1 16 22.7
003D3BD0 2019-03-27 19:35:10 21.2 16 22.7
003D3BD0 2019-03-27 19:05:04 21.2 16 22.7
003D3BD0 2019-03-27 18:35:00 21.3 16 22.6
003D3BD0 2019-03-27 18:04:54 21.3 16 22.6
003D3BD0 2019-03-27 17:34:48 21.3 16 22.5
003D3BD0 2019-03-27 17:04:42 21.3 16 22.5
003D3BD0 2019-03-27 16:34:35 21.3 16 22.6
003D3BD0 2019-03-27 16:04:28 21.3 16 22.6
003D3BD0 2019-03-27 15:34:23 21.2 16 22.6
003D3BD0 2019-03-27 15:04:18 21.2 16 22.6
003D3BD0 2019-03-27 14:34:13 21.1 16 22.6
003D3BD0 2019-03-27 14:04:07 21 16 22.6
003D3BD0 2019-03-27 13:34:00 20.9 16 22.6
003D3BD0 2019-03-27 13:03:54 20.9 16 22.5
003D3BD0 2019-03-27 12:33:49 20.8 15 21.5
003D3BD0 2019-03-27 12:03:47 20.8 15 20.1
003D3BD0 2019-03-27 11:33:41 20.7 15 18
003D3BD0 2019-03-27 11:03:36 20.7 15 17.5
003D3BD0 2019-03-27 10:33:30 20.7 15 17.5
003D3BD0 2019-03-27 10:03:25 20.7 15 17.1
003D3BD0 2019-03-27 09:33:19 20.6 15 17.5
003D3BD0 2019-03-27 09:02:40 20.6 15 17.4
003D3BD0 2019-03-27 08:32:33 20.6 15 17.8
003D3BD0 2019-03-27 08:02:27 20.6 15 17.9
003D3BD0 2019-03-27 07:32:23 20.6 15 17.9
003D3BD0 2019-03-27 07:02:18 20.6 15 17.6
003D3BD0 2019-03-27 06:32:13 20.6 15 17.3
003D3BD0 2019-03-27 06:02:07 20.7 14 17.5
003D3BD0 2019-03-27 05:32:01 20.7 14 17.4
003D3BD0 2019-03-27 05:01:55 20.7 14 17.4
003D3BD0 2019-03-27 04:31:49 20.7 14 17.2
003D3BD0 2019-03-27 04:01:43 20.7 14 17
003D3BD0 2019-03-27 03:31:37 20.7 14 17.1
003D3BD0 2019-03-27 03:01:33 20.7 14 17.1
003D3BD0 2019-03-27 02:31:24 20.8 14 17.1
003D3BD0 2019-03-27 02:01:15 20.8 14 17.1
003D3BD0 2019-03-27 01:31:07 20.9 14 17
003D3BD0 2019-03-27 01:00:59 20.9 14 17
003D3BD0 2019-03-27 00:30:51 20.9 14 16.9
003D3BD0 2019-03-27 00:00:40 20.9 14 16.9
003D3BD0 2019-03-26 23:30:29 21 14 17.1
003D3BD0 2019-03-26 23:00:22 21 14 17.3
003D3BD0 2019-03-26 22:30:16 21 14 17.3
003D3BD0 2019-03-26 22:00:10 21.1 14 17.3
003D3BD0 2019-03-26 21:30:04 21.1 14 16.7
003D3BD0 2019-03-26 20:59:58 21.1 14 16.7
003D3BD0 2019-03-26 20:29:52 21.1 14 16.2
003D3BD0 2019-03-26 19:59:47 21.2 14 15.9
003D3BD0 2019-03-26 19:29:41 21.2 14 15.5
003D3BD0 2019-03-26 18:59:35 21.2 14 15
003D3BD0 2019-03-26 18:29:33 21.3 14 15.1
003D3BD0 2019-03-26 17:59:24 21.3 14 15.1
003D3BD0 2019-03-26 17:29:19 21.3 15 14.9
003D3BD0 2019-03-26 16:59:15 21.3 15 18.5
003D3BD0 2019-03-26 16:29:09 21.3 15 20.4
003D3BD0 2019-03-26 15:59:08 21.3 15 20.5
003D3BD0 2019-03-26 15:28:58 21.2 15 20.5
003D3BD0 2019-03-26 14:58:52 21 16 20.5
003D3BD0 2019-03-26 14:28:46 20.9 16 20.5
003D3BD0 2019-03-26 13:58:40 20.8 16 20.5
003D3BD0 2019-03-26 13:28:34 20.7 16 21.8
003D3BD0 2019-03-26 12:58:28 20.7 17 21.8
003D3BD0 2019-03-26 12:28:21 20.6 17 21.8
003D3BD0 2019-03-26 11:58:14 20.6 17 21.9
003D3BD0 2019-03-26 11:28:07 20.6 17 21.9
003D3BD0 2019-03-26 10:58:02 20.6 18 21.9
003D3BD0 2019-03-26 10:27:57 20.6 18 21.9
003D3BD0 2019-03-26 09:57:53 20.6 19 21.9
003D3BD0 2019-03-26 09:27:46 20.6 19 22
003D3BD0 2019-03-26 08:57:39 20.6 19 22.1
003D3BD0 2019-03-26 08:27:29 20.6 20 22.1
003D3BD0 2019-03-26 07:56:49 20.6 20 22.1
003D3BD0 2019-03-26 07:26:44 20.6 20 23.1
003D3BD0 2019-03-26 06:56:39 20.6 20 23.2
003D3BD0 2019-03-26 06:26:32 20.6 20 23.2
003D3BD0 2019-03-26 05:56:27 20.6 20 23.3
003D3BD0 2019-03-26 05:26:17 20.6 20 23.3
003D3BD0 2019-03-26 04:56:11 20.6 20 23.3
003D3BD0 2019-03-26 04:26:03 20.6 20 22.4
003D3BD0 2019-03-26 03:55:50 20.6 20 22.5
003D3BD0 2019-03-26 03:25:37 20.6 20 22.6
003D3BD0 2019-03-26 02:55:23 20.6 20 22.7
003D3BD0 2019-03-26 02:25:16 20.6 20 22.7
003D3BD0 2019-03-26 01:55:09 20.7 21 22.7
003D3BD0 2019-03-26 01:25:03 20.7 21 22.7
003D3BD0 2019-03-26 00:54:56 20.7 21 22.7
003D3BD0 2019-03-26 00:24:50 20.8 21 22.7
003D3BD0 2019-03-25 23:54:41 20.8 21 22.7
003D3BD0 2019-03-25 23:24:28 20.8 21 22.7
003D3BD0 2019-03-25 22:54:15 20.8 21 22.6
003D3BD0 2019-03-25 22:24:02 20.8 21 22.6
003D3BD0 2019-03-25 21:53:48 20.9 21 22.6
003D3BD0 2019-03-25 21:23:39 20.9 21 22.5
003D3BD0 2019-03-25 20:53:22 20.9 21 22.6
003D3BD0 2019-03-25 20:23:09 20.9 21 22.6
003D3BD0 2019-03-25 19:52:57 20.9 20 22.5
003D3BD0 2019-03-25 19:22:50 20.9 21 22.6
003D3BD0 2019-03-25 18:52:39 20.9 21 21.7
003D3BD0 2019-03-25 18:22:27 21 21 21.6
003D3BD0 2019-03-25 17:52:15 21 22 21.6
003D3BD0 2019-03-25 17:22:04 21.1 23 22.6
003D3BD0 2019-03-25 16:51:52 21.1 23 22.6
003D3BD0 2019-03-25 16:21:39 21.1 23 21.6
003D3BD0 2019-03-25 15:51:26 21 23 21.6
003D3BD0 2019-03-25 15:21:14 21 24 21.7
003D3BD0 2019-03-25 14:51:00 21 24 21.7
003D3BD0 2019-03-25 14:20:53 21 24 21.6
003D3BD0 2019-03-25 13:50:47 20.9 24 21.7
003D3BD0 2019-03-25 13:20:39 20.9 24 21.8
003D3BD0 2019-03-25 12:50:30 20.8 24 20.5
003D3BD0 2019-03-25 12:20:24 20.7 23 20.8
003D3BD0 2019-03-25 11:50:17 20.7 24 21
003D3BD0 2019-03-25 11:20:11 20.6 24 20.9
003D3BD0 2019-03-25 10:50:03 20.6 24 21.1
003D3BD0 2019-03-25 10:19:55 20.5 24 21.3
003D3BD0 2019-03-25 09:49:49 20.3 24 21.5
003D3BD0 2019-03-25 09:19:41 20.3 23 21.5
003D3BD0 2019-03-25 08:49:35 20.2 23 22.6
003D3BD0 2019-03-25 08:19:27 20.3 23 22.5
003D3BD0 2019-03-25 07:49:18 20.3 23 22.5
003D3BD0 2019-03-25 07:19:05 20.3 23 22.6
003D3BD0 2019-03-25 06:48:21 20.3 23 22.5
003D3BD0 2019-03-25 06:18:07 20.3 23 22.7
003D3BD0 2019-03-25 05:47:56 20.3 23 22.7
003D3BD0 2019-03-25 05:17:45 20.3 23 21.9
003D3BD0 2019-03-25 04:47:32 20.3 23 21.9
003D3BD0 2019-03-25 04:17:20 20.3 23 22.1
003D3BD0 2019-03-25 03:47:08 20.4 23 22.2
003D3BD0 2019-03-25 03:16:56 20.4 23 22.1
003D3BD0 2019-03-25 02:46:44 20.4 23 22.2
003D3BD0 2019-03-25 02:16:32 20.4 23 22.2
003D3BD0 2019-03-25 01:46:20 20.5 23 22.1
003D3BD0 2019-03-25 01:16:06 20.5 23 22
003D3BD0 2019-03-25 00:45:55 20.5 23 22.2
003D3BD0 2019-03-25 00:15:43 20.6 23 22.1
003D3BD0 2019-03-24 23:45:29 20.6 23 22
003D3BD0 2019-03-24 23:15:17 20.7 23 22.2
003D3BD0 2019-03-24 22:45:05 20.7 23 22.2
003D3BD0 2019-03-24 22:14:55 20.7 23 23
003D3BD0 2019-03-24 21:44:47 20.8 23 23
003D3BD0 2019-03-24 21:14:33 20.8 23 23.8
003D3BD0 2019-03-24 20:44:20 20.9 23 23
003D3BD0 2019-03-24 20:14:07 20.9 23 23.1
003D3BD0 2019-03-24 19:43:56 20.9 23 23.1
003D3BD0 2019-03-24 19:13:44 20.9 23 23.1
003D3BD0 2019-03-24 18:43:32 20.9 23 23.3
003D3BD0 2019-03-24 18:13:20 20.9 23 23.3
003D3BD0 2019-03-24 17:43:08 20.9 23 23.3
003D3BD0 2019-03-24 17:12:55 20.9 24 23.4
003D3BD0 2019-03-24 16:42:44 20.8 24 23.3
003D3BD0 2019-03-24 16:12:33 20.7 24 23.4
003D3BD0 2019-03-24 15:42:20 20.6 24 23.3
003D3BD0 2019-03-24 15:12:10 20.5 24 23.4
003D3BD0 2019-03-24 14:41:58 20.4 24 23.4
003D3BD0 2019-03-24 14:11:47 20.3 24 23.5
003D3BD0 2019-03-24 13:41:33 20.3 24 23.4
003D3BD0 2019-03-24 13:11:20 20.3 24 23.4
003D3BD0 2019-03-24 12:41:06 20.2 23 23.5
003D3BD0 2019-03-24 12:10:58 20.2 23 23.5
003D3BD0 2019-03-24 11:40:53 20.2 23 23.5
003D3BD0 2019-03-24 11:10:46 20.3 23 23.5
003D3BD0 2019-03-24 10:40:41 20.2 23 23.6
003D3BD0 2019-03-24 10:10:33 20.2 23 23.6
003D3BD0 2019-03-24 09:40:26 20.2 23 22.9
003D3BD0 2019-03-24 09:10:17 20.3 23 22.9
003D3BD0 2019-03-24 08:40:10 20.2 23 22.1
003D3BD0 2019-03-24 08:10:02 20.2 23 22.2
003D3BD0 2019-03-24 07:39:54 20.2 23 22
003D3BD0 2019-03-24 07:09:48 20.2 23 22.1
003D3BD0 2019-03-24 06:39:40 20.2 23 22.1
003D3BD0 2019-03-24 06:09:33 20.2 23 22.9
003D3BD0 2019-03-24 05:38:53 20.2 23 22.8
003D3BD0 2019-03-24 05:08:48 20.2 23 22.8
003D3BD0 2019-03-24 04:38:41 20.3 23 22.9
003D3BD0 2019-03-24 04:08:34 20.3 23 22.7
003D3BD0 2019-03-24 03:38:27 20.3 23 22.7
003D3BD0 2019-03-24 03:08:20 20.3 23 22.6
003D3BD0 2019-03-24 02:38:15 20.3 23 22.6
003D3BD0 2019-03-24 02:08:07 20.3 23 22.6
003D3BD0 2019-03-24 01:38:01 20.3 23 22.5
003D3BD0 2019-03-24 01:07:55 20.3 23 22.7
003D3BD0 2019-03-24 00:37:48 20.3 23 22.7
003D3BD0 2019-03-24 00:07:40 20.3 23 23.5
003D3BD0 2019-03-23 23:37:27 20.3 23 23.5
003D3BD0 2019-03-23 23:07:16 20.3 22 23.5
003D3BD0 2019-03-23 22:37:08 20.3 22 23.3
003D3BD0 2019-03-23 22:07:02 20.3 22 23.2
003D3BD0 2019-03-23 21:36:57 20.3 22 23.1
003D3BD0 2019-03-23 21:06:51 20.4 22 23.1
003D3BD0 2019-03-23 20:36:46 20.4 22 23
003D3BD0 2019-03-23 20:06:39 20.3 22 22.9
003D3BD0 2019-03-23 19:36:31 20.4 22 23
003D3BD0 2019-03-23 19:06:24 20.4 22 22.9
003D3BD0 2019-03-23 18:36:19 20.4 22 22.8
003D3BD0 2019-03-23 18:06:10 20.4 21 22
003D3BD0 2019-03-23 17:36:00 20.4 21 22.1
003D3BD0 2019-03-23 17:05:47 20.4 21 22
003D3BD0 2019-03-23 16:35:34 20.4 21 22
003D3BD0 2019-03-23 16:05:24 20.4 21 21.8
003D3BD0 2019-03-23 15:35:17 20.4 21 21.9
003D3BD0 2019-03-23 15:05:10 20.4 21 22
003D3BD0 2019-03-23 14:35:04 20.4 21 22
003D3BD0 2019-03-23 14:04:59 20.4 21 21.9
003D3BD0 2019-03-23 13:34:53 20.4 21 21.9
003D3BD0 2019-03-23 13:04:43 20.4 21 22
003D3BD0 2019-03-23 12:34:33 20.4 21 21.9
003D3BD0 2019-03-23 12:04:19 20.4 21 21.7
003D3BD0 2019-03-23 11:34:08 20.4 20 20.6
003D3BD0 2019-03-23 11:03:56 20.4 20 20.3
003D3BD0 2019-03-23 10:33:44 20.4 20 20.1
003D3BD0 2019-03-23 10:03:33 20.4 20 20.3
003D3BD0 2019-03-23 09:33:23 20.4 20 20.4
003D3BD0 2019-03-23 09:03:10 20.5 20 20.4
003D3BD0 2019-03-23 08:33:01 20.4 20 20.2
003D3BD0 2019-03-23 08:02:47 20.5 20 20.2
003D3BD0 2019-03-23 07:32:33 20.5 20 20.2
003D3BD0 2019-03-23 07:02:19 20.5 20 20
003D3BD0 2019-03-23 06:32:06 20.5 20 19.9
003D3BD0 2019-03-23 06:01:52 20.5 20 20
003D3BD0 2019-03-23 05:31:39 20.5 19 19.6
003D3BD0 2019-03-23 05:01:25 20.8 19 19.4
003D3BD0 2019-03-23 05:00:14 20.6 19 19.6
003D3BD0 2019-03-23 04:30:02 20.6 19 19.5
003D3BD0 2019-03-23 03:59:48 20.6 19 19.7
003D3BD0 2019-03-23 03:29:33 20.7 19 19.6
003D3BD0 2019-03-23 02:59:22 20.7 19 19.4
003D3BD0 2019-03-23 02:29:13 20.7 19 19.2
003D3BD0 2019-03-23 01:59:05 20.8 19 19.3
003D3BD0 2019-03-23 01:28:57 20.8 19 19
003D3BD0 2019-03-23 00:58:49 20.9 18 19
003D3BD0 2019-03-23 00:28:41 21 18 18.7
003D3BD0 2019-03-22 23:58:32 21 18 18.8
003D3BD0 2019-03-22 23:28:24 21.1 18 18.5
003D3BD0 2019-03-22 22:58:16 21.1 18 18.7
003D3BD0 2019-03-22 22:28:08 21.2 18 18.7
003D3BD0 2019-03-22 21:58:01 21.3 18 18.4
003D3BD0 2019-03-22 21:27:53 21.3 18 18.5
003D3BD0 2019-03-22 20:57:45 21.3 18 18.3
003D3BD0 2019-03-22 20:27:36 21.3 17 18.5
003D3BD0 2019-03-22 19:57:28 21.3 17 18.4
003D3BD0 2019-03-22 19:27:20 21.3 17 18.4
003D3BD0 2019-03-22 18:57:14 21.3 17 18.4
003D3BD0 2019-03-22 18:27:06 21.2 17 18.4
003D3BD0 2019-03-22 17:56:58 21.2 17 18.4
003D3BD0 2019-03-22 17:26:49 21.2 17 18.4
003D3BD0 2019-03-22 16:56:41 21.1 17 18.4
003D3BD0 2019-03-22 16:26:35 21.1 17 18.2
003D3BD0 2019-03-22 15:56:27 21 17 18.3
003D3BD0 2019-03-22 15:26:20 20.9 18 18
003D3BD0 2019-03-22 14:56:13 20.8 18 20.1
003D3BD0 2019-03-22 14:26:06 20.7 19 19.9
003D3BD0 2019-03-22 13:56:02 20.7 19 21.4
003D3BD0 2019-03-22 13:25:53 20.7 20 21.3
003D3BD0 2019-03-22 12:55:45 20.7 20 22.4
003D3BD0 2019-03-22 12:25:38 20.7 20 22.5
003D3BD0 2019-03-22 11:55:28 20.7 21 22.6
003D3BD0 2019-03-22 11:25:21 20.6 21 22.5
003D3BD0 2019-03-22 10:55:13 20.6 22 22.6
003D3BD0 2019-03-22 10:25:06 20.6 22 22.5
003D3BD0 2019-03-22 09:54:58 20.6 22 22.5
003D3BD0 2019-03-22 09:24:49 20.6 23 22.7
003D3BD0 2019-03-22 08:54:41 20.6 23 22.6
003D3BD0 2019-03-22 08:24:32 20.6 24 22.7
003D3BD0 2019-03-22 07:54:22 20.6 24 22.6
003D3BD0 2019-03-22 07:24:12 20.6 24 22.7
003D3BD0 2019-03-22 06:54:04 20.6 25 22.7
003D3BD0 2019-03-22 06:23:54 20.6 25 22.7
003D3BD0 2019-03-22 05:53:47 20.6 25 22.8
003D3BD0 2019-03-22 05:23:39 20.6 25 22.8
003D3BD0 2019-03-22 04:53:27 20.6 26 22.8
003D3BD0 2019-03-22 04:23:17 20.7 26 22.8
003D3BD0 2019-03-22 03:52:35 20.6 26 22.7
003D3BD0 2019-03-22 03:22:26 20.7 27 22.7
003D3BD0 2019-03-22 02:52:16 20.7 27 21.7
003D3BD0 2019-03-22 02:22:04 20.7 27 21.7
003D3BD0 2019-03-22 01:51:47 20.7 27 20.5
003D3BD0 2019-03-22 01:21:33 20.7 27 20.3
003D3BD0 2019-03-22 00:51:25 20.8 28 18.4
003D3BD0 2019-03-22 00:21:17 20.8 28 18
003D3BD0 2019-03-21 23:51:09 20.8 28 17.9
003D3BD0 2019-03-21 23:21:01 20.8 28 20
003D3BD0 2019-03-21 22:50:52 20.8 28 20.1
003D3BD0 2019-03-21 22:20:43 20.9 28 21.4
003D3BD0 2019-03-21 21:50:34 20.9 28 21.4
003D3BD0 2019-03-21 21:20:27 20.9 28 21.3
003D3BD0 2019-03-21 20:50:18 20.9 28 21.4
003D3BD0 2019-03-21 20:20:09 20.9 28 21.4
003D3BD0 2019-03-21 19:50:01 21 28 21.4
003D3BD0 2019-03-21 19:19:51 21 28 21.3
003D3BD0 2019-03-21 18:49:35 21.1 27 21.2
003D3BD0 2019-03-21 18:19:21 21.1 27 21.1
003D3BD0 2019-03-21 17:49:08 21.2 27 21
003D3BD0 2019-03-21 17:18:52 21.2 27 21.1
003D3BD0 2019-03-21 16:48:37 21.2 27 21.1
003D3BD0 2019-03-21 16:18:27 21.3 27 21.1
003D3BD0 2019-03-21 15:48:18 21.3 28 21
003D3BD0 2019-03-21 15:18:08 21.2 28 21
003D3BD0 2019-03-21 14:48:00 21.1 27 21.1
003D3BD0 2019-03-21 14:17:49 21.1 27 22.2
003D3BD0 2019-03-21 13:47:44 21 26 22.3
003D3BD0 2019-03-21 13:17:37 20.9 26 22.3
003D3BD0 2019-03-21 12:47:29 20.8 26 22.4
003D3BD0 2019-03-21 12:17:20 20.8 25 22.4
003D3BD0 2019-03-21 11:47:11 20.8 25 21.3
003D3BD0 2019-03-21 11:17:04 20.7 25 21.3
003D3BD0 2019-03-21 10:46:57 20.7 25 19.8
003D3BD0 2019-03-21 10:16:53 20.6 25 19.6
003D3BD0 2019-03-21 09:46:42 20.6 25 19.3
003D3BD0 2019-03-21 09:16:33 20.6 25 19.5
003D3BD0 2019-03-21 08:46:27 20.5 25 19.5
003D3BD0 2019-03-21 08:16:21 20.5 25 19.6
003D3BD0 2019-03-21 07:46:12 20.5 25 19.8
003D3BD0 2019-03-21 07:16:05 20.6 25 19.9
003D3BD0 2019-03-21 06:45:56 20.6 25 19.9
003D3BD0 2019-03-21 06:15:49 20.6 25 20
003D3BD0 2019-03-21 05:45:42 20.6 25 20.1
003D3BD0 2019-03-21 05:15:35 20.6 25 20.1
003D3BD0 2019-03-21 04:45:30 20.6 25 20.2
003D3BD0 2019-03-21 04:15:20 20.6 26 20.1
003D3BD0 2019-03-21 03:45:12 20.6 26 20.2
003D3BD0 2019-03-21 03:15:05 20.6 26 20.1
003D3BD0 2019-03-21 02:44:23 20.6 26 18.8
003D3BD0 2019-03-21 02:14:16 20.6 26 18.5
003D3BD0 2019-03-21 01:44:09 20.6 26 18.7
003D3BD0 2019-03-21 01:14:01 20.6 26 18.7
003D3BD0 2019-03-21 00:43:54 20.6 26 18.9
003D3BD0 2019-03-21 00:13:50 20.6 26 19
003D3BD0 2019-03-20 23:43:43 20.6 26 19.1
003D3BD0 2019-03-20 23:13:34 20.7 26 19.2
003D3BD0 2019-03-20 22:43:27 20.7 26 19.2
003D3BD0 2019-03-20 22:13:19 20.7 26 19.5
003D3BD0 2019-03-20 21:43:10 20.7 26 19.7
003D3BD0 2019-03-20 21:13:02 20.7 26 19.7
003D3BD0 2019-03-20 20:42:53 20.8 26 19.8
003D3BD0 2019-03-20 20:12:47 20.8 26 20
003D3BD0 2019-03-20 19:42:40 20.8 26 20
003D3BD0 2019-03-20 19:12:32 20.9 26 20.1
003D3BD0 2019-03-20 18:42:24 20.9 26 20
003D3BD0 2019-03-20 18:12:16 20.9 26 20.1
003D3BD0 2019-03-20 17:42:10 21 25 20.2
003D3BD0 2019-03-20 17:12:02 21 26 20.4
003D3BD0 2019-03-20 16:41:56 21 25 20.5
003D3BD0 2019-03-20 16:11:48 21.1 25 20.8
003D3BD0 2019-03-20 15:41:41 21.1 26 20.7
003D3BD0 2019-03-20 15:11:28 21 25 20.9
003D3BD0 2019-03-20 14:41:16 21 25 20.8
003D3BD0 2019-03-20 14:11:04 21 25 20.5
003D3BD0 2019-03-20 13:40:54 20.9 25 20.6
003D3BD0 2019-03-20 13:10:42 20.9 25 20.9
003D3BD0 2019-03-20 12:40:29 20.9 25 21.1
003D3BD0 2019-03-20 12:10:15 20.8 25 21.2
003D3BD0 2019-03-20 11:40:02 20.7 25 21.3
003D3BD0 2019-03-20 11:09:51 20.7 25 21.4
003D3BD0 2019-03-20 10:39:42 20.6 25 21.6
003D3BD0 2019-03-20 10:09:28 20.6 25 21.8
003D3BD0 2019-03-20 09:39:16 20.5 25 21.8
003D3BD0 2019-03-20 09:09:05 20.5 25 22
003D3BD0 2019-03-20 08:38:54 20.5 25 22.1
003D3BD0 2019-03-20 08:08:45 20.5 26 22.3
003D3BD0 2019-03-20 07:38:31 20.5 26 22.3
003D3BD0 2019-03-20 07:08:23 20.5 26 22.3
003D3BD0 2019-03-20 06:38:15 20.5 27 22.4
003D3BD0 2019-03-20 06:08:09 20.5 27 22.5
003D3BD0 2019-03-20 05:38:01 20.5 27 22.4
003D3BD0 2019-03-20 05:07:53 20.5 27 23.1
003D3BD0 2019-03-20 04:37:45 20.5 27 23.2
003D3BD0 2019-03-20 04:07:41 20.5 27 23.2
003D3BD0 2019-03-20 03:37:33 20.5 27 23.1
003D3BD0 2019-03-20 03:07:26 20.6 27 23.1
003D3BD0 2019-03-20 02:37:19 20.6 28 23.1
003D3BD0 2019-03-20 02:07:14 20.6 28 23.1
003D3BD0 2019-03-20 01:36:29 20.6 28 23
003D3BD0 2019-03-20 01:06:22 20.6 28 22.8
003D3BD0 2019-03-20 00:36:16 20.6 28 22.7
003D3BD0 2019-03-20 00:06:10 20.6 28 22.6
003D3BD0 2019-03-19 23:36:04 20.7 28 22.6
003D3BD0 2019-03-19 23:05:58 20.7 28 22.4
003D3BD0 2019-03-19 22:35:51 20.7 28 22.2
003D3BD0 2019-03-19 22:05:44 20.8 28 22.1
003D3BD0 2019-03-19 21:35:39 20.8 28 21.9
003D3BD0 2019-03-19 21:05:31 20.8 29 21.9
003D3BD0 2019-03-19 20:35:25 20.9 29 21.9
003D3BD0 2019-03-19 20:05:17 20.9 29 21.7
003D3BD0 2019-03-19 19:35:09 20.9 29 21.7
003D3BD0 2019-03-19 19:05:01 21 29 21.7
003D3BD0 2019-03-19 18:34:54 21.1 29 21.6
003D3BD0 2019-03-19 18:04:45 21.1 29 21.6
003D3BD0 2019-03-19 17:34:37 21.2 30 21.7
003D3BD0 2019-03-19 17:04:29 21.2 30 20.4
003D3BD0 2019-03-19 16:34:22 21.2 30 20.2
003D3BD0 2019-03-19 16:04:14 21.1 29 19.9
003D3BD0 2019-03-19 15:34:05 21.1 29 20
003D3BD0 2019-03-19 15:04:00 21.1 29 20.2
003D3BD0 2019-03-19 14:33:52 21.1 29 20.1
003D3BD0 2019-03-19 14:03:43 21.1 29 19.9
003D3BD0 2019-03-19 13:33:36 21 29 20.1
003D3BD0 2019-03-19 13:03:29 21 29 20.1
003D3BD0 2019-03-19 12:33:21 20.9 29 20.1
003D3BD0 2019-03-19 12:03:07 20.9 29 20.2
003D3BD0 2019-03-19 11:32:55 20.8 29 20.4
003D3BD0 2019-03-19 11:02:42 20.7 29 20.3
003D3BD0 2019-03-19 10:32:29 20.7 28 20.3
003D3BD0 2019-03-19 10:02:18 20.6 28 20.5
003D3BD0 2019-03-19 09:32:06 20.6 27 20.4
003D3BD0 2019-03-19 09:01:54 20.5 27 20.4
003D3BD0 2019-03-19 08:31:41 20.5 27 20.1
003D3BD0 2019-03-19 08:01:27 20.5 27 20
003D3BD0 2019-03-19 07:31:13 20.5 27 19.8
003D3BD0 2019-03-19 07:00:59 20.5 27 19.5
003D3BD0 2019-03-19 06:30:45 20.5 27 19.4
003D3BD0 2019-03-19 06:00:34 20.5 27 19.5
003D3BD0 2019-03-19 05:30:23 20.5 27 19.2
003D3BD0 2019-03-19 05:00:13 20.5 27 19.1
003D3BD0 2019-03-19 04:30:06 20.5 27 19
003D3BD0 2019-03-19 04:00:00 20.5 27 18.9
003D3BD0 2019-03-19 03:29:55 20.6 27 18.9
003D3BD0 2019-03-19 02:59:49 20.5 27 18.9
003D3BD0 2019-03-19 02:29:42 20.5 27 18.6
003D3BD0 2019-03-19 01:59:35 20.6 27 18.8
003D3BD0 2019-03-19 01:29:28 20.6 27 18.7
003D3BD0 2019-03-19 00:59:22 20.6 27 18.8
003D3BD0 2019-03-19 00:28:40 20.6 27 19
003D3BD0 2019-03-18 23:58:33 20.6 27 18.8
003D3BD0 2019-03-18 23:28:25 20.6 27 18.5
003D3BD0 2019-03-18 22:58:20 20.6 27 18.6
003D3BD0 2019-03-18 22:28:13 20.6 27 18.5
003D3BD0 2019-03-18 21:58:06 20.7 27 18.6
003D3BD0 2019-03-18 21:27:59 20.7 27 18.8
003D3BD0 2019-03-18 20:57:55 20.7 27 18.9
003D3BD0 2019-03-18 20:27:44 20.7 27 18.9
003D3BD0 2019-03-18 19:57:35 20.7 27 19.2
003D3BD0 2019-03-18 19:27:31 20.8 27 19.3
003D3BD0 2019-03-18 18:57:22 20.8 27 19.4
003D3BD0 2019-03-18 18:27:15 20.8 27 19.2
003D3BD0 2019-03-18 17:57:09 20.9 27 19.2
003D3BD0 2019-03-18 17:27:02 20.9 27 19.3
003D3BD0 2019-03-18 16:56:55 20.9 27 19.4
003D3BD0 2019-03-18 16:26:51 20.9 27 19.7
003D3BD0 2019-03-18 15:56:42 20.8 27 19.7
003D3BD0 2019-03-18 15:26:36 20.8 27 19.6
003D3BD0 2019-03-18 14:56:30 20.8 27 19.7
003D3BD0 2019-03-18 14:26:23 20.8 27 19.4
003D3BD0 2019-03-18 13:56:16 20.7 27 19.8
003D3BD0 2019-03-18 13:26:09 20.7 27 19.8
003D3BD0 2019-03-18 12:56:01 20.7 27 19.8
003D3BD0 2019-03-18 12:25:54 20.7 27 19.8
003D3BD0 2019-03-18 11:55:45 20.7 27 19.7
003D3BD0 2019-03-18 11:25:37 20.7 27 19.7
003D3BD0 2019-03-18 10:55:30 20.6 27 19.7
003D3BD0 2019-03-18 10:25:22 20.6 27 19.8
003D3BD0 2019-03-18 09:55:14 20.6 27 19.5
003D3BD0 2019-03-18 09:25:08 20.6 27 19.4
003D3BD0 2019-03-18 08:55:00 20.5 27 19.3
003D3BD0 2019-03-18 08:24:51 20.6 27 19.3
003D3BD0 2019-03-18 07:54:44 20.5 27 19.1
003D3BD0 2019-03-18 07:24:36 20.6 27 18.9
003D3BD0 2019-03-18 06:54:27 20.5 27 18.7
003D3BD0 2019-03-18 06:24:21 20.6 27 18.7
003D3BD0 2019-03-18 05:54:14 20.5 27 18.7
003D3BD0 2019-03-18 05:24:07 20.5 27 18.8
003D3BD0 2019-03-18 04:54:00 20.5 27 18.7
003D3BD0 2019-03-18 04:23:54 20.5 27 18.5
003D3BD0 2019-03-18 03:53:47 20.5 27 18.3
003D3BD0 2019-03-18 03:23:39 20.5 27 18.3
003D3BD0 2019-03-18 02:53:31 20.5 27 20.1
003D3BD0 2019-03-18 02:23:24 20.5 26 20
003D3BD0 2019-03-18 01:53:16 20.5 26 20.2
003D3BD0 2019-03-18 01:23:07 20.6 26 19.9
003D3BD0 2019-03-18 00:52:59 20.5 26 19.7
003D3BD0 2019-03-18 00:22:51 20.5 26 19.7
003D3BD0 2019-03-17 23:52:43 20.5 26 19.8
003D3BD0 2019-03-17 23:22:04 20.5 26 19.7
003D3BD0 2019-03-17 22:51:56 20.5 26 19.8
003D3BD0 2019-03-17 22:21:50 20.5 26 19.8
003D3BD0 2019-03-17 21:51:43 20.5 26 19.8
003D3BD0 2019-03-17 21:21:37 20.5 26 19.9
003D3BD0 2019-03-17 20:51:29 20.6 26 20
003D3BD0 2019-03-17 20:21:23 20.5 26 19.8
003D3BD0 2019-03-17 19:51:20 20.5 26 19.8
003D3BD0 2019-03-17 19:21:12 20.5 26 19.7
003D3BD0 2019-03-17 18:51:05 20.5 26 19.8
003D3BD0 2019-03-17 18:20:59 20.5 26 19.9
003D3BD0 2019-03-17 17:50:51 20.6 26 20.1
003D3BD0 2019-03-17 17:20:44 20.6 26 20
003D3BD0 2019-03-17 16:50:40 20.6 26 20.1
003D3BD0 2019-03-17 16:20:33 20.6 26 20.1
003D3BD0 2019-03-17 15:50:28 20.6 26 20
003D3BD0 2019-03-17 15:20:23 20.6 26 20.1
003D3BD0 2019-03-17 14:50:18 20.6 26 18.1
003D3BD0 2019-03-17 14:20:10 20.6 26 18.3
003D3BD0 2019-03-17 13:50:07 20.6 26 18.3
003D3BD0 2019-03-17 13:20:00 20.6 26 18.3
003D3BD0 2019-03-17 12:49:53 20.6 26 18.3
003D3BD0 2019-03-17 12:19:48 20.6 26 18.1
003D3BD0 2019-03-17 11:49:41 20.6 26 18
003D3BD0 2019-03-17 11:19:34 20.6 26 18
003D3BD0 2019-03-17 10:49:27 20.6 26 18
003D3BD0 2019-03-17 10:19:19 20.6 26 17.9
003D3BD0 2019-03-17 09:49:13 20.6 26 17.8
003D3BD0 2019-03-17 09:19:06 20.6 26 17.9
003D3BD0 2019-03-17 08:48:59 20.6 26 18.1
003D3BD0 2019-03-17 08:18:54 20.6 26 18
003D3BD0 2019-03-17 07:48:46 20.5 26 18.1
003D3BD0 2019-03-17 07:18:43 20.6 27 18
003D3BD0 2019-03-17 06:48:36 20.6 27 18.1
003D3BD0 2019-03-17 06:18:29 20.6 27 18.2
003D3BD0 2019-03-17 05:48:21 20.6 27 18.1
003D3BD0 2019-03-17 05:18:13 20.6 27 17.8
003D3BD0 2019-03-17 04:48:05 20.6 27 17.8
003D3BD0 2019-03-17 04:17:59 20.6 27 17.7
003D3BD0 2019-03-17 03:47:54 20.6 27 17.6
003D3BD0 2019-03-17 03:17:46 20.6 27 17.7
003D3BD0 2019-03-17 02:47:37 20.6 27 17.5
003D3BD0 2019-03-17 02:17:29 20.6 27 17.6
003D3BD0 2019-03-17 01:47:19 20.6 27 17.5
003D3BD0 2019-03-17 01:17:10 20.6 27 17.4
003D3BD0 2019-03-17 00:47:02 20.6 27 17.4
003D3BD0 2019-03-17 00:16:55 20.6 27 17.6
003D3BD0 2019-03-16 23:46:46 20.5 27 18
003D3BD0 2019-03-16 23:16:38 20.6 27 18.1
003D3BD0 2019-03-16 22:46:31 20.6 26 18.1
003D3BD0 2019-03-16 22:15:53 20.6 26 18.1
003D3BD0 2019-03-16 21:45:44 20.6 26 18
003D3BD0 2019-03-16 21:15:35 20.6 26 18
003D3BD0 2019-03-16 20:45:26 20.6 26 17.8
003D3BD0 2019-03-16 20:15:17 20.6 26 18.1
003D3BD0 2019-03-16 19:45:06 20.6 26 18.3
003D3BD0 2019-03-16 19:14:57 20.6 26 18.7
003D3BD0 2019-03-16 18:44:47 20.6 26 18.6
003D3BD0 2019-03-16 18:14:39 20.6 26 18.4
003D3BD0 2019-03-16 17:44:31 20.6 26 18.5
003D3BD0 2019-03-16 17:14:24 20.6 26 18.7
003D3BD0 2019-03-16 16:44:19 20.6 26 18.9
003D3BD0 2019-03-16 16:14:12 20.6 26 18.9
003D3BD0 2019-03-16 15:44:05 20.6 26 19
003D3BD0 2019-03-16 15:13:57 20.6 26 19
003D3BD0 2019-03-16 14:43:50 20.6 26 19.1
003D3BD0 2019-03-16 14:13:44 20.6 26 19
003D3BD0 2019-03-16 13:43:35 20.6 26 18.9
003D3BD0 2019-03-16 13:13:26 20.6 26 18.9
003D3BD0 2019-03-16 12:43:16 20.6 26 18.9
003D3BD0 2019-03-16 12:13:08 20.6 26 18.9
003D3BD0 2019-03-16 11:42:59 20.6 26 18.8
003D3BD0 2019-03-16 11:12:50 20.6 26 18.7
003D3BD0 2019-03-16 10:42:44 20.6 26 18.8
003D3BD0 2019-03-16 10:12:37 20.6 26 18.7
003D3BD0 2019-03-16 09:42:29 20.6 26 18.6
003D3BD0 2019-03-16 09:12:21 20.6 26 18.8
003D3BD0 2019-03-16 08:42:13 20.6 26 18.8
003D3BD0 2019-03-16 08:12:05 20.6 26 18.9
003D3BD0 2019-03-16 07:41:56 20.6 26 18.8
003D3BD0 2019-03-16 07:11:48 20.6 26 18.7
003D3BD0 2019-03-16 06:41:40 20.6 26 18.4
003D3BD0 2019-03-16 06:11:32 20.6 26 18.5
003D3BD0 2019-03-16 05:41:24 20.6 26 18.6
003D3BD0 2019-03-16 05:11:18 20.6 26 18.5
003D3BD0 2019-03-16 04:41:07 20.6 26 18.6
003D3BD0 2019-03-16 04:10:58 20.6 26 18.4
003D3BD0 2019-03-16 03:40:50 20.6 26 18.4
003D3BD0 2019-03-16 03:10:42 20.6 26 18.3
003D3BD0 2019-03-16 02:40:34 20.6 26 18.3
003D3BD0 2019-03-16 02:10:29 20.6 26 18.1
003D3BD0 2019-03-16 01:40:22 20.6 26 18.3
003D3BD0 2019-03-16 01:10:14 20.6 26 18.6
003D3BD0 2019-03-16 00:40:05 20.6 26 18.5
003D3BD0 2019-03-16 00:09:57 20.7 26 18.5
003D3BD0 2019-03-15 23:39:50 20.7 26 18.7
003D3BD0 2019-03-15 23:09:41 20.7 26 18.7
003D3BD0 2019-03-15 22:39:36 20.7 26 18.6
003D3BD0 2019-03-15 22:09:29 20.7 26 18.6
003D3BD0 2019-03-15 21:39:22 20.8 26 18.8
003D3BD0 2019-03-15 21:08:40 20.8 26 19
003D3BD0 2019-03-15 20:38:32 20.8 26 19.1
003D3BD0 2019-03-15 20:08:25 20.8 26 18.9
003D3BD0 2019-03-15 19:38:14 20.8 26 18.9
003D3BD0 2019-03-15 19:08:02 20.8 26 18.9
003D3BD0 2019-03-15 18:37:47 20.8 26 19.3
003D3BD0 2019-03-15 18:07:34 20.8 26 19.2
003D3BD0 2019-03-15 17:37:19 20.8 26 19.2
003D3BD0 2019-03-15 17:07:06 20.8 26 19.2
003D3BD0 2019-03-15 16:36:58 20.8 26 19.2
003D3BD0 2019-03-15 16:06:50 20.8 26 19.3
003D3BD0 2019-03-15 15:36:42 20.8 26 19.5
003D3BD0 2019-03-15 15:06:33 20.8 26 19.7
003D3BD0 2019-03-15 14:36:21 20.8 26 19.8
003D3BD0 2019-03-15 14:06:09 20.8 26 19.9
003D3BD0 2019-03-15 13:35:55 20.8 26 20.1
003D3BD0 2019-03-15 13:05:45 20.8 26 19.9
003D3BD0 2019-03-15 12:35:31 20.8 26 20
003D3BD0 2019-03-15 12:05:19 20.7 26 20.2
003D3BD0 2019-03-15 11:35:04 20.7 26 20.1
003D3BD0 2019-03-15 11:04:50 20.7 25 20.1
003D3BD0 2019-03-15 10:34:36 20.7 25 20.3
003D3BD0 2019-03-15 10:04:22 20.6 25 20.4
003D3BD0 2019-03-15 09:34:09 20.6 25 20.3
003D3BD0 2019-03-15 09:03:59 20.6 25 20.2
003D3BD0 2019-03-15 08:33:52 20.6 24 20.3
003D3BD0 2019-03-15 08:03:44 20.6 24 20.2
003D3BD0 2019-03-15 07:33:36 20.6 24 21.6
003D3BD0 2019-03-15 07:03:28 20.6 24 21.5
003D3BD0 2019-03-15 06:33:19 20.6 24 21.7
003D3BD0 2019-03-15 06:03:12 20.6 24 21.6
003D3BD0 2019-03-15 05:33:02 20.6 24 21.7
003D3BD0 2019-03-15 05:02:54 20.6 24 22.7
003D3BD0 2019-03-15 04:32:46 20.6 24 22.7
003D3BD0 2019-03-15 04:02:38 20.6 24 22.6
003D3BD0 2019-03-15 03:32:30 20.6 24 22.5
003D3BD0 2019-03-15 03:02:22 20.6 24 22.5
003D3BD0 2019-03-15 02:32:15 20.6 24 22.3
003D3BD0 2019-03-15 02:02:11 20.6 24 22.3
003D3BD0 2019-03-15 01:32:03 20.6 24 22.2
003D3BD0 2019-03-15 01:01:56 20.7 24 22
003D3BD0 2019-03-15 00:31:48 20.7 24 21.9
003D3BD0 2019-03-15 00:01:41 20.7 24 22
003D3BD0 2019-03-14 23:31:31 20.7 24 21.8
003D3BD0 2019-03-14 23:01:24 20.7 23 21.8
003D3BD0 2019-03-14 22:31:16 20.7 23 21.7
003D3BD0 2019-03-14 22:01:06 20.7 23 21.6
003D3BD0 2019-03-14 21:30:59 20.8 23 21.5
003D3BD0 2019-03-14 21:00:54 20.8 23 21.6
003D3BD0 2019-03-14 20:30:42 20.8 23 21.5
003D3BD0 2019-03-14 20:00:02 20.8 23 21.3
003D3BD0 2019-03-14 19:29:53 20.9 23 19.8
003D3BD0 2019-03-14 18:59:45 20.9 23 19.7
003D3BD0 2019-03-14 18:29:36 20.9 23 19.7
003D3BD0 2019-03-14 17:59:21 20.9 23 19.6
003D3BD0 2019-03-14 17:29:06 20.9 23 21
003D3BD0 2019-03-14 16:58:50 20.9 23 19.4
003D3BD0 2019-03-14 16:28:36 20.9 23 19.5
003D3BD0 2019-03-14 15:58:22 20.9 23 19.5
003D3BD0 2019-03-14 15:28:08 20.9 23 19.9
003D3BD0 2019-03-14 14:57:55 20.9 23 19.9
003D3BD0 2019-03-14 14:27:44 20.9 23 20
003D3BD0 2019-03-14 13:57:30 20.9 23 20.2
003D3BD0 2019-03-14 13:27:16 20.9 23 20.2
003D3BD0 2019-03-14 12:57:02 20.9 23 20.4
003D3BD0 2019-03-14 12:26:49 20.8 22 20.6
003D3BD0 2019-03-14 11:56:37 20.8 22 20.5
003D3BD0 2019-03-14 11:26:24 20.8 22 20.8
003D3BD0 2019-03-14 10:56:11 20.8 22 20.8
003D3BD0 2019-03-14 10:25:58 20.7 21 22
003D3BD0 2019-03-14 09:55:44 20.7 21 22
003D3BD0 2019-03-14 09:25:37 20.6 20 22
003D3BD0 2019-03-14 08:55:21 20.6 20 22
003D3BD0 2019-03-14 07:54:56 20.5 19 22.2
003D3BD0 2019-03-14 04:53:37 20.6 18 20.9
003D3BD0 2019-03-14 04:23:24 20.6 18 20.9
003D3BD0 2019-03-14 03:53:11 20.6 18 20.7
003D3BD0 2019-03-14 03:22:59 20.6 18 20.7
003D3BD0 2019-03-14 02:52:46 20.6 18 20.4
003D3BD0 2019-03-14 02:22:32 20.6 18 20.4
003D3BD0 2019-03-14 01:52:18 20.6 17 20.2
003D3BD0 2019-03-14 01:22:03 20.6 17 21.5
003D3BD0 2019-03-14 00:51:51 20.6 17 22.5
003D3BD0 2019-03-14 00:21:38 20.6 17 22.4
003D3BD0 2019-03-13 23:51:23 20.6 17 22.4
003D3BD0 2019-03-13 23:21:10 20.6 17 22.3
003D3BD0 2019-03-13 22:50:56 20.6 17 22.2
003D3BD0 2019-03-13 22:20:43 20.6 17 22.2
003D3BD0 2019-03-13 21:50:29 20.6 17 21
003D3BD0 2019-03-13 21:20:15 20.7 17 21.2
003D3BD0 2019-03-13 20:50:02 20.7 16 21.2
003D3BD0 2019-03-13 20:19:49 20.7 16 21.2
003D3BD0 2019-03-13 19:49:35 20.8 16 21
003D3BD0 2019-03-13 19:19:24 20.8 16 21
003D3BD0 2019-03-13 18:48:37 20.8 16 21.2
003D3BD0 2019-03-13 18:18:25 20.9 16 21.2
003D3BD0 2019-03-13 17:48:12 20.9 16 21.2
003D3BD0 2019-03-13 17:17:57 20.9 16 21.2
003D3BD0 2019-03-13 16:47:44 20.9 16 21.1
003D3BD0 2019-03-13 16:17:30 20.9 16 21.2
003D3BD0 2019-03-13 15:47:15 20.9 16 21.2
003D3BD0 2019-03-13 15:17:06 20.8 16 21.2
003D3BD0 2019-03-13 14:46:53 20.8 16 21.2
003D3BD0 2019-03-13 14:16:50 20.8 16 21.2
003D3BD0 2019-03-13 13:46:41 20.8 16 19.7
003D3BD0 2019-03-13 13:16:36 20.8 16 17.4
003D3BD0 2019-03-13 12:46:29 20.8 16 17.3
003D3BD0 2019-03-13 12:16:23 20.7 16 17.3
003D3BD0 2019-03-13 11:46:14 20.7 16 17.3
003D3BD0 2019-03-13 11:16:05 20.7 16 17
003D3BD0 2019-03-13 10:45:54 20.6 16 16.8
003D3BD0 2019-03-13 10:15:45 20.5 16 16.9
003D3BD0 2019-03-13 09:45:39 20.4 16 16.4
003D3BD0 2019-03-13 09:15:31 20.3 15 16.3
003D3BD0 2019-03-13 08:45:22 20.3 15 15.8
003D3BD0 2019-03-13 08:15:08 20.3 15 15.9
003D3BD0 2019-03-13 07:44:54 20.4 15 15.8
003D3BD0 2019-03-13 07:14:40 20.4 16 15.5
003D3BD0 2019-03-13 06:44:26 20.4 16 15.4
003D3BD0 2019-03-13 06:14:12 20.4 16 15.1
003D3BD0 2019-03-13 05:43:58 20.4 16 14.8
003D3BD0 2019-03-13 05:13:45 20.4 16 14.8
003D3BD0 2019-03-13 04:43:32 20.4 16 14.4
003D3BD0 2019-03-13 04:13:19 20.4 16 14
003D3BD0 2019-03-13 03:43:11 20.4 16 14.1
003D3BD0 2019-03-13 03:13:02 20.4 16 13.9
003D3BD0 2019-03-13 02:42:55 20.4 16 18
003D3BD0 2019-03-13 02:12:46 20.5 16 20.1
003D3BD0 2019-03-13 01:42:38 20.5 16 20.2
003D3BD0 2019-03-13 01:12:30 20.5 16 21.5
003D3BD0 2019-03-13 00:42:20 20.5 16 21.8
003D3BD0 2019-03-13 00:12:12 20.5 16 21.8
003D3BD0 2019-03-12 23:42:05 20.5 16 21.8
003D3BD0 2019-03-12 23:11:57 20.5 16 21.8
003D3BD0 2019-03-12 22:41:49 20.6 16 21.8
003D3BD0 2019-03-12 22:11:43 20.5 16 21.8
003D3BD0 2019-03-12 21:41:34 20.6 16 21.9
003D3BD0 2019-03-12 21:11:27 20.6 16 22.9
003D3BD0 2019-03-12 20:41:19 20.6 16 23.7
003D3BD0 2019-03-12 20:11:11 20.6 16 24.4
003D3BD0 2019-03-12 19:41:04 20.6 16 24.9
003D3BD0 2019-03-12 19:10:59 20.7 16 25.4
003D3BD0 2019-03-12 18:40:52 20.7 16 25.9
003D3BD0 2019-03-12 18:10:39 20.7 16 26.3
003D3BD0 2019-03-12 17:39:47 20.7 16 27
003D3BD0 2019-03-12 17:09:33 20.8 16 27.4
003D3BD0 2019-03-12 16:39:20 20.7 16 27.7
003D3BD0 2019-03-12 16:09:07 20.7 16 28
003D3BD0 2019-03-12 15:38:54 20.7 16 28.2
003D3BD0 2019-03-12 15:08:42 20.7 16 28.5
003D3BD0 2019-03-12 14:38:29 20.7 16 28.5
003D3BD0 2019-03-12 14:08:17 20.6 16 28.5
003D3BD0 2019-03-12 13:38:03 20.6 16 28.7
003D3BD0 2019-03-12 13:07:55 20.6 16 28.7
003D3BD0 2019-03-12 12:37:42 20.6 16 28.9
003D3BD0 2019-03-12 12:07:27 20.5 16 29.1
003D3BD0 2019-03-12 11:37:12 20.5 16 29.3
003D3BD0 2019-03-12 11:07:03 20.5 16 29.5
003D3BD0 2019-03-12 10:36:55 20.5 16 29.7
003D3BD0 2019-03-12 10:06:47 20.4 16 29.8
003D3BD0 2019-03-12 09:36:38 20.4 16 30
003D3BD0 2019-03-12 09:06:31 20.3 16 30
003D3BD0 2019-03-12 08:36:22 20.3 16 30
003D3BD0 2019-03-12 08:06:15 20.3 16 30
003D3BD0 2019-03-12 07:36:09 20.3 16 30
003D3BD0 2019-03-12 07:06:02 20.4 16 30
003D3BD0 2019-03-12 06:35:55 20.4 16 30
003D3BD0 2019-03-12 06:05:48 20.4 16 30
003D3BD0 2019-03-12 05:35:39 20.4 16 30
003D3BD0 2019-03-12 05:05:34 20.4 16 30
003D3BD0 2019-03-12 04:35:26 20.4 16 29.8
003D3BD0 2019-03-12 04:05:18 20.4 16 29.7
003D3BD0 2019-03-12 03:35:10 20.4 17 29.5
003D3BD0 2019-03-12 03:05:02 20.4 16 29.3
003D3BD0 2019-03-12 02:34:54 20.4 17 29.1
003D3BD0 2019-03-12 02:04:45 20.5 17 28.9
003D3BD0 2019-03-12 01:34:38 20.5 17 28.7
003D3BD0 2019-03-12 01:04:30 20.5 17 28.5
003D3BD0 2019-03-12 00:34:21 20.5 17 28.2
003D3BD0 2019-03-12 00:04:07 20.5 17 28
003D3BD0 2019-03-11 23:33:54 20.5 17 27.7
003D3BD0 2019-03-11 23:03:44 20.5 17 27.4
003D3BD0 2019-03-11 22:33:32 20.6 17 27.1
003D3BD0 2019-03-11 22:03:18 20.6 17 26.7
003D3BD0 2019-03-11 21:33:03 20.6 17 26.3
003D3BD0 2019-03-11 21:02:51 20.6 17 26.3
003D3BD0 2019-03-11 20:32:39 20.6 17 25.9
003D3BD0 2019-03-11 20:02:24 20.6 17 25.4
003D3BD0 2019-03-11 19:32:12 20.7 17 24.9
003D3BD0 2019-03-11 19:02:01 20.7 17 24.3
003D3BD0 2019-03-11 18:31:44 20.7 16 23.7
003D3BD0 2019-03-11 18:01:33 20.7 17 22.9
003D3BD0 2019-03-11 17:31:20 20.7 17 21.9
003D3BD0 2019-03-11 17:01:05 20.7 17 20.6
003D3BD0 2019-03-11 16:30:24 20.7 17 19
003D3BD0 2019-03-11 16:00:13 20.7 17 18.6
003D3BD0 2019-03-11 15:30:06 20.6 17 18.6
003D3BD0 2019-03-11 14:59:56 20.6 17 20.5
003D3BD0 2019-03-11 14:29:49 20.6 17 20.3
003D3BD0 2019-03-11 13:59:40 20.5 17 20.4
003D3BD0 2019-03-11 13:29:35 20.5 17 20.2
003D3BD0 2019-03-11 12:59:29 20.5 17 20.1
003D3BD0 2019-03-11 12:29:21 20.5 17 20.1
003D3BD0 2019-03-11 11:59:12 20.5 17 20
003D3BD0 2019-03-11 11:28:59 20.4 17 21.4
003D3BD0 2019-03-11 10:58:48 20.4 18 21.4
003D3BD0 2019-03-11 10:28:37 20.4 18 22.5
003D3BD0 2019-03-11 09:58:22 20.4 18 22.5
003D3BD0 2019-03-11 09:28:10 20.4 18 23.4
003D3BD0 2019-03-11 08:58:00 20.3 18 22.5
003D3BD0 2019-03-11 08:27:52 20.3 18 22.5
003D3BD0 2019-03-11 07:57:48 20.3 18 22.5
003D3BD0 2019-03-11 07:27:37 20.3 18 22.5
003D3BD0 2019-03-11 06:57:32 20.4 19 22.5
003D3BD0 2019-03-11 06:27:24 20.4 19 22.5
003D3BD0 2019-03-11 05:27:08 20.4 19 22.5
003D3BD0 2019-03-11 04:57:01 20.4 19 22.4
003D3BD0 2019-03-11 04:26:55 20.4 19 22.4
003D3BD0 2019-03-11 03:56:47 20.4 19 22.4
003D3BD0 2019-03-11 03:26:36 20.4 19 22.4
003D3BD0 2019-03-11 02:56:29 20.4 19 22.4
003D3BD0 2019-03-11 02:26:20 20.4 19 21.3
003D3BD0 2019-03-11 01:56:12 20.4 19 21.3
003D3BD0 2019-03-11 01:26:05 20.4 20 21.2
003D3BD0 2019-03-11 00:55:54 20.4 20 21.2
003D3BD0 2019-03-11 00:25:46 20.4 20 21.2
003D3BD0 2019-03-10 23:55:37 20.5 20 21.2
003D3BD0 2019-03-10 23:25:34 20.5 20 21.3
003D3BD0 2019-03-10 22:55:21 20.5 20 19.7
003D3BD0 2019-03-10 22:25:12 20.5 20 19.7
003D3BD0 2019-03-10 21:24:56 20.5 20 17.4
003D3BD0 2019-03-10 20:54:47 20.5 20 17.3
003D3BD0 2019-03-10 20:24:38 20.6 20 11.6
003D3BD0 2019-03-10 19:54:30 20.6 20 11.6
003D3BD0 2019-03-10 19:24:27 20.6 21 11.4
003D3BD0 2019-03-10 18:54:17 20.6 21 11.4
003D3BD0 2019-03-10 18:24:08 20.6 21 11.1
003D3BD0 2019-03-10 17:54:02 20.6 21 11.1
003D3BD0 2019-03-10 17:23:54 20.6 21 11
003D3BD0 2019-03-10 16:53:46 20.6 21 11
003D3BD0 2019-03-10 16:23:37 20.6 22 11
003D3BD0 2019-03-10 15:53:31 20.6 22 11
003D3BD0 2019-03-10 15:22:51 20.6 22 10.7
003D3BD0 2019-03-10 14:52:44 20.6 23 10.5
003D3BD0 2019-03-10 14:22:38 20.5 23 10
003D3BD0 2019-03-10 13:52:30 20.5 24 10
003D3BD0 2019-03-10 13:22:21 20.5 24 9.7
003D3BD0 2019-03-10 12:52:14 20.5 24 9.6
003D3BD0 2019-03-10 12:22:06 20.5 24 9.6
003D3BD0 2019-03-10 11:51:58 20.5 24 9.4
003D3BD0 2019-03-10 11:21:49 20.5 24 9.2
003D3BD0 2019-03-10 10:51:40 20.5 24 9
003D3BD0 2019-03-10 10:21:31 20.5 24 8.7
003D3BD0 2019-03-10 09:51:28 20.5 24 8.6
003D3BD0 2019-03-10 09:21:15 20.5 24 8.5
003D3BD0 2019-03-10 08:51:01 20.5 24 8.5
003D3BD0 2019-03-10 08:20:51 20.5 24 8.5
003D3BD0 2019-03-10 07:50:39 20.5 24 8.6
003D3BD0 2019-03-10 07:20:26 20.5 24 8.6
003D3BD0 2019-03-10 06:50:12 20.5 24 8.6
003D3BD0 2019-03-10 06:20:01 20.5 24 8.5
003D3BD0 2019-03-10 05:49:53 20.5 24 8.7
003D3BD0 2019-03-10 05:19:42 20.5 24 8.8
003D3BD0 2019-03-10 04:49:33 20.5 24 8.8
003D3BD0 2019-03-10 04:19:23 20.5 24 8.7
003D3BD0 2019-03-10 03:49:19 20.5 24 8.7
003D3BD0 2019-03-10 03:19:12 20.5 24 8.6
003D3BD0 2019-03-10 02:49:06 20.5 24 8.6
003D3BD0 2019-03-10 01:48:52 20.6 24 9.4
003D3BD0 2019-03-10 01:18:46 20.6 24 9.4
003D3BD0 2019-03-10 00:48:38 20.6 24 9.6
003D3BD0 2019-03-10 00:18:31 20.6 24 9.8
003D3BD0 2019-03-09 23:48:26 20.6 24 10
003D3BD0 2019-03-09 23:18:19 20.6 23 10.2
003D3BD0 2019-03-09 22:48:12 20.6 23 10.4
003D3BD0 2019-03-09 22:18:08 20.6 23 10.5
003D3BD0 2019-03-09 21:47:59 20.6 23 10.6
003D3BD0 2019-03-09 21:17:47 20.6 23 10.7
003D3BD0 2019-03-09 20:47:36 20.6 23 10.9
003D3BD0 2019-03-09 20:17:23 20.6 23 11.2
003D3BD0 2019-03-09 19:47:10 20.6 23 11.4
003D3BD0 2019-03-09 19:16:59 20.7 23 13.5
003D3BD0 2019-03-09 18:46:44 20.7 23 14.1
003D3BD0 2019-03-09 18:16:30 20.7 23 14.2
003D3BD0 2019-03-09 17:46:17 20.7 23 14.9
003D3BD0 2019-03-09 17:16:06 20.7 23 16.1
003D3BD0 2019-03-09 16:45:53 20.7 23 16.3
003D3BD0 2019-03-09 16:15:40 20.7 23 19.2
003D3BD0 2019-03-09 15:45:32 20.7 24 19.3
003D3BD0 2019-03-09 15:15:19 20.7 24 19.3
003D3BD0 2019-03-09 14:45:08 20.7 24 19.3
003D3BD0 2019-03-09 14:14:23 20.7 24 19.4
003D3BD0 2019-03-09 13:44:15 20.6 24 19.3
003D3BD0 2019-03-09 13:14:08 20.6 24 19.3
003D3BD0 2019-03-09 12:44:04 20.6 24 19.3
003D3BD0 2019-03-09 12:13:57 20.6 24 19.3
003D3BD0 2019-03-09 11:43:50 20.6 24 19.3
003D3BD0 2019-03-09 11:13:45 20.6 24 19.3
003D3BD0 2019-03-09 10:43:41 20.6 24 19.3
003D3BD0 2019-03-09 10:13:34 20.5 24 19.3
003D3BD0 2019-03-09 09:43:25 20.5 25 19.4
003D3BD0 2019-03-09 09:13:18 20.5 25 19.4
003D3BD0 2019-03-09 08:43:11 20.5 25 19.4
003D3BD0 2019-03-09 08:13:05 20.6 25 19.4
003D3BD0 2019-03-09 07:42:59 20.6 25 19.4
003D3BD0 2019-03-09 07:12:53 20.6 25 19
003D3BD0 2019-03-09 06:42:47 20.6 26 18.8
003D3BD0 2019-03-09 06:12:41 20.6 26 18.8
003D3BD0 2019-03-09 05:42:34 20.6 26 18.6
003D3BD0 2019-03-09 05:12:28 20.6 26 18.1
003D3BD0 2019-03-09 04:42:23 20.7 26 17.9
003D3BD0 2019-03-09 04:12:17 20.7 26 13.5
003D3BD0 2019-03-09 03:42:12 20.7 26 12.9
003D3BD0 2019-03-09 03:12:06 20.7 26 12.9
003D3BD0 2019-03-09 02:42:00 20.7 26 12.9
003D3BD0 2019-03-09 02:11:52 20.7 26 12.9
003D3BD0 2019-03-09 01:11:40 20.7 26 12.8
003D3BD0 2019-03-09 00:41:33 20.8 26 12.8
003D3BD0 2019-03-09 00:11:29 20.8 26 17.7
003D3BD0 2019-03-08 23:41:21 20.8 26 17.7
003D3BD0 2019-03-08 23:11:15 20.9 26 17.7
003D3BD0 2019-03-08 22:41:09 20.9 26 17.6
003D3BD0 2019-03-08 22:11:03 20.9 26 17.6
003D3BD0 2019-03-08 21:40:56 20.9 26 17.5
003D3BD0 2019-03-08 21:10:49 20.9 26 17.6
003D3BD0 2019-03-08 20:40:45 21 26 17.5
003D3BD0 2019-03-08 20:10:36 21 26 17.5
003D3BD0 2019-03-08 19:40:30 21 26 17.5
003D3BD0 2019-03-08 19:10:16 21 27 17.4
003D3BD0 2019-03-08 18:40:05 21 26 17.3
003D3BD0 2019-03-08 18:09:53 21.1 26 17.2
003D3BD0 2019-03-08 17:39:40 21.1 26 17.2
003D3BD0 2019-03-08 17:09:30 21.1 27 17.2
003D3BD0 2019-03-08 16:39:14 21.1 27 17.2
003D3BD0 2019-03-08 16:09:02 21.1 27 17.1
003D3BD0 2019-03-08 15:38:52 21 27 17
003D3BD0 2019-03-08 15:08:44 21 26 17
003D3BD0 2019-03-08 14:38:42 21 26 17
003D3BD0 2019-03-08 14:08:31 20.9 26 17
003D3BD0 2019-03-08 13:38:24 20.9 26 16.9
003D3BD0 2019-03-08 13:07:43 20.9 26 16.9
003D3BD0 2019-03-08 12:37:31 20.8 26 16.9
003D3BD0 2019-03-08 12:07:24 20.8 25 9.8
003D3BD0 2019-03-08 11:37:11 20.8 25 10
003D3BD0 2019-03-08 11:07:06 20.8 25 10
003D3BD0 2019-03-08 10:36:50 20.8 24 10
003D3BD0 2019-03-08 10:06:38 20.7 24 9.9
003D3BD0 2019-03-08 09:36:27 20.7 24 9.7
003D3BD0 2019-03-08 09:06:20 20.7 24 9.3
003D3BD0 2019-03-08 08:36:14 20.7 24 9.3
003D3BD0 2019-03-08 08:06:04 20.7 23 16.8
003D3BD0 2019-03-08 07:35:57 20.7 23 16.8
003D3BD0 2019-03-08 07:05:51 20.7 23 16.8
003D3BD0 2019-03-08 06:35:43 20.7 23 16.8
003D3BD0 2019-03-08 05:35:29 20.7 23 16.8
003D3BD0 2019-03-08 05:05:23 20.7 23 16.8
003D3BD0 2019-03-08 04:35:20 20.7 23 16.8
003D3BD0 2019-03-08 04:05:14 20.7 23 16.8
003D3BD0 2019-03-08 03:35:07 20.7 23 16.8
003D3BD0 2019-03-08 03:05:03 20.7 22 16.8
003D3BD0 2019-03-08 02:34:54 20.7 22 16.8
003D3BD0 2019-03-08 02:04:44 20.7 22 16.8
003D3BD0 2019-03-08 01:34:39 20.7 22 16.8
003D3BD0 2019-03-08 01:04:34 20.7 22 16.8
003D3BD0 2019-03-08 00:34:28 20.7 22 16.8
003D3BD0 2019-03-08 00:04:23 20.8 22 19.4
003D3BD0 2019-03-07 23:34:16 20.7 22 19.4
003D3BD0 2019-03-07 23:04:14 20.8 22 19.4
003D3BD0 2019-03-07 22:34:05 20.8 22 19.4
003D3BD0 2019-03-07 22:03:59 20.8 22 19.4
003D3BD0 2019-03-07 21:33:52 20.9 22 19.4
003D3BD0 2019-03-07 21:03:49 20.9 22 19.4
003D3BD0 2019-03-07 20:33:42 20.9 22 19.4
003D3BD0 2019-03-07 20:03:35 20.9 22 19.4
003D3BD0 2019-03-07 19:33:28 21 22 16.7
003D3BD0 2019-03-07 19:03:24 21 22 16.7
003D3BD0 2019-03-07 18:33:15 21.1 22 16.7
003D3BD0 2019-03-07 18:03:09 21.1 22 16.8
003D3BD0 2019-03-07 17:33:03 21.2 22 16.8
003D3BD0 2019-03-07 17:02:55 21.2 22 16.8
003D3BD0 2019-03-07 16:32:49 21.2 22 16.8
003D3BD0 2019-03-07 16:02:41 21.1 21 16.8
003D3BD0 2019-03-07 15:32:32 21.1 21 16.8
003D3BD0 2019-03-07 15:02:23 21.1 21 16.8
003D3BD0 2019-03-07 14:32:16 21.1 21 16.8
003D3BD0 2019-03-07 14:02:10 21 20 16.8
003D3BD0 2019-03-07 13:32:00 21 20 16.9
003D3BD0 2019-03-07 13:01:49 20.9 19 16.9
003D3BD0 2019-03-07 12:31:33 20.9 19 16.9
003D3BD0 2019-03-07 12:00:52 20.9 19 9.7
003D3BD0 2019-03-07 11:30:46 20.9 18 9.9
003D3BD0 2019-03-07 11:00:38 20.8 18 10.6
003D3BD0 2019-03-07 10:30:33 20.7 18 11.3
003D3BD0 2019-03-07 10:00:25 20.7 17 11.4
003D3BD0 2019-03-07 09:30:18 20.7 17 11.6
003D3BD0 2019-03-07 09:00:11 20.7 16 11.5
003D3BD0 2019-03-07 08:30:05 20.7 16 11.4
003D3BD0 2019-03-07 08:00:00 20.7 16 11.4
003D3BD0 2019-03-07 07:29:54 20.7 15 11.4
003D3BD0 2019-03-07 06:59:47 20.7 15 11.6
003D3BD0 2019-03-07 06:29:42 20.7 15 11.6
003D3BD0 2019-03-07 05:59:35 20.7 15 11.6
003D3BD0 2019-03-07 05:29:29 20.7 14 11.5
003D3BD0 2019-03-07 04:59:23 20.7 14 11.6
003D3BD0 2019-03-07 04:29:15 20.7 14 11.6
003D3BD0 2019-03-07 03:59:10 20.7 14 11.4
003D3BD0 2019-03-07 03:29:03 20.7 14 11.3
003D3BD0 2019-03-07 02:58:57 20.7 13 11.2
003D3BD0 2019-03-07 02:28:51 20.7 13 11.2
003D3BD0 2019-03-07 01:58:43 20.7 13 11.2
003D3BD0 2019-03-07 01:28:37 20.6 13 11.2
003D3BD0 2019-03-07 00:58:29 20.6 13 11.1
003D3BD0 2019-03-07 00:28:27 20.7 13 11.1
003D3BD0 2019-03-06 23:58:20 20.7 13 11
003D3BD0 2019-03-06 23:28:13 20.7 13 11
003D3BD0 2019-03-06 22:58:10 20.7 13 11
003D3BD0 2019-03-06 22:28:04 20.7 12 10.3
003D3BD0 2019-03-06 21:57:58 20.7 12 9.5
003D3BD0 2019-03-06 21:27:52 20.7 12 9.3
003D3BD0 2019-03-06 20:57:44 20.7 12 8.9
003D3BD0 2019-03-06 20:27:33 20.7 12 8.9
003D3BD0 2019-03-06 19:57:20 20.8 12 8.9
003D3BD0 2019-03-06 19:27:12 20.8 12 8.9
003D3BD0 2019-03-06 18:57:00 20.8 12 8.9
003D3BD0 2019-03-06 18:26:48 20.9 12 8.7
003D3BD0 2019-03-06 17:56:38 20.9 12 8.5
003D3BD0 2019-03-06 17:26:24 20.9 12 8.4
003D3BD0 2019-03-06 16:56:13 20.9 12 8.4
003D3BD0 2019-03-06 16:26:06 20.9 11 8.3
003D3BD0 2019-03-06 15:55:59 20.9 11 8.2
003D3BD0 2019-03-06 15:25:53 20.9 11 8.4
003D3BD0 2019-03-06 14:55:46 20.8 12 8.6
003D3BD0 2019-03-06 14:25:39 20.7 11 8.8
003D3BD0 2019-03-06 13:55:31 20.7 11 8.8
003D3BD0 2019-03-06 13:25:27 20.6 11 9
003D3BD0 2019-03-06 12:55:19 20.6 11 9
003D3BD0 2019-03-06 12:25:12 20.6 11 16.8
003D3BD0 2019-03-06 11:55:05 20.6 12 16.8
003D3BD0 2019-03-06 11:24:59 20.6 12 16.8
003D3BD0 2019-03-06 10:54:19 20.5 12 16.8
003D3BD0 2019-03-06 10:24:14 20.5 12 16.8
003D3BD0 2019-03-06 09:54:07 20.4 12 16.9
003D3BD0 2019-03-06 09:24:00 20.4 11 16.9
003D3BD0 2019-03-06 08:53:56 20.4 12 17
003D3BD0 2019-03-06 08:23:49 20.4 12 17
003D3BD0 2019-03-06 07:53:45 20.4 12 17
003D3BD0 2019-03-06 07:23:36 20.5 12 19.5
003D3BD0 2019-03-06 06:53:31 20.5 12 19.6
003D3BD0 2019-03-06 06:23:25 20.5 13 19.6
003D3BD0 2019-03-06 05:53:20 20.5 13 19.6
003D3BD0 2019-03-06 05:23:15 20.5 13 19.7
003D3BD0 2019-03-06 04:53:10 20.5 13 19.7
003D3BD0 2019-03-06 04:23:04 20.5 13 19.7
003D3BD0 2019-03-06 03:52:59 20.5 13 19.7
003D3BD0 2019-03-06 03:22:53 20.5 13 19.7
003D3BD0 2019-03-06 02:52:48 20.6 13 19.7
003D3BD0 2019-03-06 02:22:42 20.6 13 19.6
003D3BD0 2019-03-06 01:52:35 20.6 13 19.6
003D3BD0 2019-03-06 01:22:30 20.6 13 19.6
003D3BD0 2019-03-06 00:52:23 20.7 13 19.6
003D3BD0 2019-03-06 00:22:18 20.7 13 17.2
003D3BD0 2019-03-05 23:52:13 20.7 13 17.2
003D3BD0 2019-03-05 23:22:07 20.8 13 17.2
003D3BD0 2019-03-05 22:52:01 20.8 13 17.2
003D3BD0 2019-03-05 22:21:54 20.8 13 17.2
003D3BD0 2019-03-05 21:51:47 20.8 13 17.2
003D3BD0 2019-03-05 21:21:39 20.8 14 17.1
003D3BD0 2019-03-05 20:51:31 20.8 14 17.1
003D3BD0 2019-03-05 20:21:24 20.8 14 17.1
003D3BD0 2019-03-05 19:51:10 20.8 14 17.1
003D3BD0 2019-03-05 19:20:56 20.8 14 10.8
003D3BD0 2019-03-05 18:50:44 20.9 14 10.6
003D3BD0 2019-03-05 18:20:31 20.9 14 10.5
003D3BD0 2019-03-05 17:50:19 21 14 10
003D3BD0 2019-03-05 17:20:07 21 15 10.1
003D3BD0 2019-03-05 16:49:54 21 15 10.2
003D3BD0 2019-03-05 16:19:41 20.9 15 10.1
003D3BD0 2019-03-05 15:49:28 20.8 16 10.2
003D3BD0 2019-03-05 15:19:18 20.7 16 10.3
003D3BD0 2019-03-05 14:49:09 20.7 16 10.3
003D3BD0 2019-03-05 14:19:03 20.6 17 10.5
003D3BD0 2019-03-05 13:48:56 20.5 17 10.7
003D3BD0 2019-03-05 13:18:52 20.5 17 10.7
003D3BD0 2019-03-05 12:48:46 20.5 17 11
003D3BD0 2019-03-05 12:18:42 20.5 17 11.1
003D3BD0 2019-03-05 11:48:36 20.5 17 11.3
003D3BD0 2019-03-05 11:18:31 20.5 18 11.3
003D3BD0 2019-03-05 10:48:24 20.5 18 11.3
003D3BD0 2019-03-05 10:18:18 20.7 18 11.6
003D3BD0 2019-03-05 10:17:08 20.5 18 11.7
003D3BD0 2019-03-05 09:47:03 20.5 18 11.8
003D3BD0 2019-03-05 09:16:58 20.5 18 12
003D3BD0 2019-03-05 08:46:52 20.5 18 12.3
003D3BD0 2019-03-05 08:16:49 20.5 19 12.3
003D3BD0 2019-03-05 07:46:38 20.5 19 12.4
003D3BD0 2019-03-05 07:16:33 20.5 19 12.4
003D3BD0 2019-03-05 06:46:29 20.5 19 12.6
003D3BD0 2019-03-05 06:16:24 20.5 19 13
003D3BD0 2019-03-05 05:46:17 20.5 19 13
003D3BD0 2019-03-05 05:16:11 20.5 19 13
003D3BD0 2019-03-05 04:46:06 20.5 19 13
003D3BD0 2019-03-05 04:15:59 20.5 19 13
003D3BD0 2019-03-05 03:45:55 20.5 19 12.9
003D3BD0 2019-03-05 03:15:49 20.5 19 17.7
003D3BD0 2019-03-05 02:45:42 20.5 19 17.7
003D3BD0 2019-03-05 02:15:37 20.5 19 17.7
003D3BD0 2019-03-05 01:45:32 20.5 19 17.7
003D3BD0 2019-03-05 01:15:28 20.5 19 17.7
003D3BD0 2019-03-05 00:45:22 20.5 19 17.6
003D3BD0 2019-03-05 00:15:13 20.5 19 17.6
003D3BD0 2019-03-04 23:44:58 20.5 18 17.6
003D3BD0 2019-03-04 23:14:46 20.5 18 17.6
003D3BD0 2019-03-04 22:44:35 20.5 18 17.5
003D3BD0 2019-03-04 22:14:23 20.5 18 17.5
003D3BD0 2019-03-04 21:44:12 20.5 18 17.6
003D3BD0 2019-03-04 21:14:00 20.5 18 19.8
003D3BD0 2019-03-04 20:43:48 20.5 18 19.8
003D3BD0 2019-03-04 20:13:36 20.5 18 19.7
003D3BD0 2019-03-04 19:43:25 20.5 18 19.7
003D3BD0 2019-03-04 19:13:12 20.5 18 21.3
003D3BD0 2019-03-04 18:42:59 20.5 18 21.3
003D3BD0 2019-03-04 18:12:52 20.5 18 21.2
003D3BD0 2019-03-04 17:42:46 20.5 18 21.2
003D3BD0 2019-03-04 17:12:41 20.5 18 21.2
003D3BD0 2019-03-04 16:42:33 20.5 18 21.2
003D3BD0 2019-03-04 16:12:25 20.5 18 21.2
003D3BD0 2019-03-04 15:42:18 20.4 18 21.2
003D3BD0 2019-03-04 15:12:11 20.4 17 21.2
003D3BD0 2019-03-04 14:42:04 20.4 17 19.7
003D3BD0 2019-03-04 14:11:56 20.4 17 19.7
003D3BD0 2019-03-04 13:41:50 20.3 17 19.7
003D3BD0 2019-03-04 13:11:43 20.3 17 19.7
003D3BD0 2019-03-04 12:41:35 20.3 17 19.7
003D3BD0 2019-03-04 12:11:26 20.2 17 19.7
003D3BD0 2019-03-04 11:41:18 20.2 17 19.7
003D3BD0 2019-03-04 11:11:09 20.2 17 19.7
003D3BD0 2019-03-04 10:40:55 20.1 17 19.7
003D3BD0 2019-03-04 10:10:46 20.1 17 19.7
003D3BD0 2019-03-04 09:40:41 20.1 17 19.7
003D3BD0 2019-03-04 09:09:59 20 17 17.4
003D3BD0 2019-03-04 08:39:49 20 17 17.5
003D3BD0 2019-03-04 08:09:41 20 18 17.5
003D3BD0 2019-03-04 07:39:32 20 18 17.7
003D3BD0 2019-03-04 07:09:23 20 18 13
003D3BD0 2019-03-04 06:39:14 20 18 13.3
003D3BD0 2019-03-04 06:09:05 20.1 18 13.8
003D3BD0 2019-03-04 05:38:59 20 18 13.8
003D3BD0 2019-03-04 05:08:50 20.1 18 14.6
003D3BD0 2019-03-04 04:38:46 20.1 18 14.9
003D3BD0 2019-03-04 04:08:36 20.1 18 15.7
003D3BD0 2019-03-04 03:38:28 20.1 18 15.8
003D3BD0 2019-03-04 03:08:20 20.1 18 15.9
003D3BD0 2019-03-04 02:38:14 20.1 17 16.1
003D3BD0 2019-03-04 02:08:06 20.1 17 16.1
003D3BD0 2019-03-04 01:38:00 20.1 17 16
003D3BD0 2019-03-04 01:07:55 20.1 17 16
003D3BD0 2019-03-04 00:37:48 20.1 17 16.1
003D3BD0 2019-03-04 00:07:40 20.1 17 16.1
003D3BD0 2019-03-03 23:37:33 20.1 17 16.2
003D3BD0 2019-03-03 23:07:24 20.1 17 16.3
003D3BD0 2019-03-03 22:37:16 20.1 17 16.4
003D3BD0 2019-03-03 22:07:10 20.1 17 16.4
003D3BD0 2019-03-03 21:37:00 20.1 17 16.4
003D3BD0 2019-03-03 21:06:52 20.1 17 16.3
003D3BD0 2019-03-03 20:36:43 20.1 18 16.3
003D3BD0 2019-03-03 20:06:36 20.1 18 16.3
003D3BD0 2019-03-03 19:36:28 20.2 18 16.3
003D3BD0 2019-03-03 19:06:20 20.2 18 16.1
003D3BD0 2019-03-03 18:36:12 20.2 18 16
003D3BD0 2019-03-03 18:06:05 20.2 18 15.9
003D3BD0 2019-03-03 17:35:57 20.2 18 15.6
003D3BD0 2019-03-03 17:05:49 20.2 18 15.5
003D3BD0 2019-03-03 16:35:46 20.2 18 14.9
003D3BD0 2019-03-03 16:05:39 20.2 18 14.6
003D3BD0 2019-03-03 15:35:31 20.2 18 13.5
003D3BD0 2019-03-03 15:05:24 20.2 18 13.3
003D3BD0 2019-03-03 14:35:19 20.2 18 13.3
003D3BD0 2019-03-03 14:05:09 20.2 18 13
003D3BD0 2019-03-03 13:35:03 20.2 18 13.2
003D3BD0 2019-03-03 13:04:58 20.2 18 13.1
003D3BD0 2019-03-03 12:34:52 20.2 18 13.2
003D3BD0 2019-03-03 12:04:47 20.2 18 13.2
003D3BD0 2019-03-03 11:34:41 20.2 18 12.9
003D3BD0 2019-03-03 11:04:39 20.2 18 12.8
003D3BD0 2019-03-03 10:34:33 20.2 18 12.7
003D3BD0 2019-03-03 10:04:27 20.2 18 12.6
003D3BD0 2019-03-03 09:34:22 20.2 18 12.6
003D3BD0 2019-03-03 09:04:16 20.2 18 12.5
003D3BD0 2019-03-03 08:34:09 20.2 18 12.5
003D3BD0 2019-03-03 08:03:31 20.2 18 12.1
003D3BD0 2019-03-03 07:33:25 20.3 18 11.9
003D3BD0 2019-03-03 07:03:20 20.2 18 11.9
003D3BD0 2019-03-03 06:33:14 20.3 18 11.7
003D3BD0 2019-03-03 06:03:09 20.3 18 11.6
003D3BD0 2019-03-03 05:33:03 20.3 18 11.6
003D3BD0 2019-03-03 05:02:57 20.3 18 11.8
003D3BD0 2019-03-03 04:32:51 20.3 18 11.7
003D3BD0 2019-03-03 04:02:44 20.3 18 11.6
003D3BD0 2019-03-03 03:32:40 20.3 18 11.7
003D3BD0 2019-03-03 03:02:34 20.3 18 11.8
003D3BD0 2019-03-03 02:32:28 20.3 18 11.9
003D3BD0 2019-03-03 02:02:21 20.4 18 11.8
003D3BD0 2019-03-03 01:32:13 20.3 18 11.8
003D3BD0 2019-03-03 01:02:06 20.3 18 11.6
003D3BD0 2019-03-03 00:32:00 20.4 18 11.5
003D3BD0 2019-03-03 00:01:48 20.4 18 11.5
003D3BD0 2019-03-02 23:31:35 20.4 18 11.6
003D3BD0 2019-03-02 23:01:26 20.4 18 11.5
003D3BD0 2019-03-02 22:31:15 20.4 18 11.4
003D3BD0 2019-03-02 22:01:09 20.4 18 11.4
003D3BD0 2019-03-02 21:31:03 20.4 18 11.4
003D3BD0 2019-03-02 21:00:56 20.4 17 11.4
003D3BD0 2019-03-02 20:30:51 20.4 17 11.4
003D3BD0 2019-03-02 20:00:44 20.5 17 11.4
003D3BD0 2019-03-02 19:30:39 20.5 17 11.4
003D3BD0 2019-03-02 19:00:33 20.5 17 11.7
003D3BD0 2019-03-02 18:30:29 20.5 17 11.7
003D3BD0 2019-03-02 18:00:22 20.5 17 11.8
003D3BD0 2019-03-02 17:30:16 20.5 17 11.7
003D3BD0 2019-03-02 17:00:09 20.5 17 11.8
003D3BD0 2019-03-02 16:30:04 20.5 17 12.2
003D3BD0 2019-03-02 15:59:58 20.5 17 12.3
003D3BD0 2019-03-02 15:29:51 20.5 17 12.3
003D3BD0 2019-03-02 14:59:45 20.4 17 12.2
003D3BD0 2019-03-02 14:29:38 20.4 17 12.1
003D3BD0 2019-03-02 13:59:31 20.4 16 17.5
003D3BD0 2019-03-02 13:29:24 20.4 16 17.4
003D3BD0 2019-03-02 12:59:18 20.4 16 17.5
003D3BD0 2019-03-02 12:29:12 20.4 16 17.5
003D3BD0 2019-03-02 11:59:04 20.4 16 17.6
003D3BD0 2019-03-02 11:28:57 20.4 16 17.6
003D3BD0 2019-03-02 10:58:50 20.4 16 17.6
003D3BD0 2019-03-02 10:28:42 20.4 16 17.6
003D3BD0 2019-03-02 09:58:36 20.4 16 17.6
003D3BD0 2019-03-02 09:28:30 20.4 16 17.6
003D3BD0 2019-03-02 08:58:23 20.4 15 17.6
003D3BD0 2019-03-02 08:28:17 20.4 15 17.6
003D3BD0 2019-03-02 07:58:11 20.4 15 17.6
003D3BD0 2019-03-02 07:28:06 20.4 15 17.6
003D3BD0 2019-03-02 06:57:28 20.4 15 17.5
003D3BD0 2019-03-02 06:27:22 20.4 15 17.6
003D3BD0 2019-03-02 05:57:17 20.4 15 17.6
003D3BD0 2019-03-02 05:27:11 20.5 15 17.6
003D3BD0 2019-03-02 04:57:06 20.5 15 17.6
003D3BD0 2019-03-02 04:26:57 20.5 15 17.5
003D3BD0 2019-03-02 03:56:45 20.5 15 17.6
003D3BD0 2019-03-02 03:26:33 20.5 15 17.6
003D3BD0 2019-03-02 02:56:21 20.6 14 17.6
003D3BD0 2019-03-02 02:26:09 20.6 14 17.7
003D3BD0 2019-03-02 01:55:58 20.6 14 17.7
003D3BD0 2019-03-02 01:25:47 20.7 14 17.7
003D3BD0 2019-03-02 00:55:36 20.7 14 17.7
003D3BD0 2019-03-02 00:25:24 20.7 14 17.7
003D3BD0 2019-03-01 23:55:13 20.8 14 17.6
003D3BD0 2019-03-01 23:25:04 20.8 14 17.6
003D3BD0 2019-03-01 22:54:57 20.9 14 17.7
003D3BD0 2019-03-01 22:24:50 20.9 13 17.7
003D3BD0 2019-03-01 21:54:42 21 13 17.7
003D3BD0 2019-03-01 21:24:34 21 13 17.8
003D3BD0 2019-03-01 20:54:27 21 13 17.8
003D3BD0 2019-03-01 20:24:22 21 13 17.8
003D3BD0 2019-03-01 19:54:15 21 13 17.9
003D3BD0 2019-03-01 19:24:08 21 13 20
003D3BD0 2019-03-01 18:54:04 21 13 20
003D3BD0 2019-03-01 18:23:59 21.1 13 20.1
003D3BD0 2019-03-01 17:53:53 21.1 14 20
003D3BD0 2019-03-01 17:23:48 21.2 14 20
003D3BD0 2019-03-01 16:53:41 21.2 14 20
003D3BD0 2019-03-01 16:23:35 21.2 14 20
003D3BD0 2019-03-01 15:53:28 21.1 15 20.1
003D3BD0 2019-03-01 15:23:21 21 15 20.1
003D3BD0 2019-03-01 14:53:15 20.9 15 20.1
003D3BD0 2019-03-01 14:23:08 20.8 15 20.1
003D3BD0 2019-03-01 13:53:01 20.8 15 20.1
003D3BD0 2019-03-01 13:22:54 20.8 16 17.9
003D3BD0 2019-03-01 12:52:49 20.8 16 17.9
003D3BD0 2019-03-01 12:22:43 20.8 16 17.9
003D3BD0 2019-03-01 11:52:37 20.8 17 17.9
003D3BD0 2019-03-01 11:22:30 20.8 17 18
003D3BD0 2019-03-01 10:52:22 20.7 17 18
003D3BD0 2019-03-01 10:22:15 20.6 17 17.9
003D3BD0 2019-03-01 09:52:08 20.5 17 17.9
003D3BD0 2019-03-01 09:22:00 20.5 17 17.9
003D3BD0 2019-03-01 08:51:47 20.5 17 17.9
003D3BD0 2019-03-01 08:21:35 20.5 18 17.9
003D3BD0 2019-03-01 07:51:28 20.5 18 17.9
003D3BD0 2019-03-01 07:21:21 20.5 18 17.9
003D3BD0 2019-03-01 06:51:14 20.6 18 13.7
003D3BD0 2019-03-01 06:21:07 20.6 19 14.2
003D3BD0 2019-03-01 05:50:28 20.6 19 15
003D3BD0 2019-03-01 05:20:23 20.6 19 15.3
003D3BD0 2019-03-01 04:50:14 20.6 19 15.5
003D3BD0 2019-03-01 04:20:06 20.6 20 15.5
003D3BD0 2019-03-01 03:50:00 20.6 20 15.5
003D3BD0 2019-03-01 03:19:52 20.6 20 15.3
003D3BD0 2019-03-01 02:49:42 20.6 20 15.3
003D3BD0 2019-03-01 02:19:34 20.6 21 15.9
003D3BD0 2019-03-01 01:49:27 20.7 21 16.3
003D3BD0 2019-03-01 01:19:21 20.7 21 16.6
003D3BD0 2019-03-01 00:49:17 20.7 21 16.7
003D3BD0 2019-03-01 00:19:05 20.8 22 17
003D3BD0 2019-02-28 23:48:58 20.7 22 17.1
003D3BD0 2019-02-28 23:18:49 20.8 22 17.4
003D3BD0 2019-02-28 22:48:43 20.8 22 17.5
003D3BD0 2019-02-28 22:18:38 20.8 23 17.8
003D3BD0 2019-02-28 21:48:31 20.9 23 17.7
003D3BD0 2019-02-28 21:18:24 20.9 23 17.9
003D3BD0 2019-02-28 20:48:17 20.9 23 18.2
003D3BD0 2019-02-28 20:18:11 21 23 18.3
003D3BD0 2019-02-28 19:48:04 21 24 18.4
003D3BD0 2019-02-28 19:17:56 21 24 18.6
003D3BD0 2019-02-28 18:47:48 21.1 24 18.6
003D3BD0 2019-02-28 18:17:35 21.2 25 18.6
003D3BD0 2019-02-28 17:47:21 21.3 25 18.3
003D3BD0 2019-02-28 17:17:11 21.3 26 18.4
003D3BD0 2019-02-28 16:47:03 21.3 26 18.2
003D3BD0 2019-02-28 16:16:55 21.3 26 18.1
003D3BD0 2019-02-28 15:46:45 21.3 26 18.1
003D3BD0 2019-02-28 15:16:40 21.2 25 18.1
003D3BD0 2019-02-28 14:46:33 21.2 25 18.3
003D3BD0 2019-02-28 14:16:24 21.2 25 18.6
003D3BD0 2019-02-28 13:46:17 21.2 25 18.5
003D3BD0 2019-02-28 13:16:09 21.1 25 18.4
003D3BD0 2019-02-28 12:46:00 21.1 24 18.5
003D3BD0 2019-02-28 12:15:53 21.1 24 18.6
003D3BD0 2019-02-28 11:45:47 21 24 18.6
003D3BD0 2019-02-28 11:15:37 20.9 24 18.7
003D3BD0 2019-02-28 10:45:29 20.8 24 18.6
003D3BD0 2019-02-28 10:15:21 20.8 23 18.7
003D3BD0 2019-02-28 09:45:13 20.8 23 18.6
003D3BD0 2019-02-28 09:15:07 20.7 22 18.7
003D3BD0 2019-02-28 08:44:57 20.7 22 18.7
003D3BD0 2019-02-28 08:14:51 20.7 22 18.6
003D3BD0 2019-02-28 07:44:45 20.8 22 18.6
003D3BD0 2019-02-28 07:14:37 20.7 22 18.7
003D3BD0 2019-02-28 06:44:31 20.7 22 18.6
003D3BD0 2019-02-28 06:14:24 20.8 22 18.8
003D3BD0 2019-02-28 05:44:18 20.8 22 18.9
003D3BD0 2019-02-28 05:14:11 20.8 22 19.1
003D3BD0 2019-02-28 04:43:30 20.8 22 20.8
003D3BD0 2019-02-28 04:13:24 20.8 22 20.8
003D3BD0 2019-02-28 03:43:16 20.8 22 20.8
003D3BD0 2019-02-28 03:13:08 20.8 22 20.8
003D3BD0 2019-02-28 02:43:00 20.8 22 20.7
003D3BD0 2019-02-28 02:12:53 20.8 22 20.6
003D3BD0 2019-02-28 01:42:45 20.9 22 20.5
003D3BD0 2019-02-28 01:12:39 20.9 22 20.5
003D3BD0 2019-02-28 00:42:33 20.9 22 20.3
003D3BD0 2019-02-28 00:12:24 20.9 22 20.2
003D3BD0 2019-02-27 23:42:17 20.9 22 20.1
003D3BD0 2019-02-27 23:12:09 21 23 20
003D3BD0 2019-02-27 22:42:02 21 23 20
003D3BD0 2019-02-27 22:11:54 21.1 23 20
003D3BD0 2019-02-27 21:41:47 21.1 23 20
003D3BD0 2019-02-27 21:11:42 21.1 23 20
003D3BD0 2019-02-27 20:41:35 21.2 23 20
003D3BD0 2019-02-27 20:11:28 21.2 23 20
003D3BD0 2019-02-27 19:41:21 21.2 23 20.3
003D3BD0 2019-02-27 19:11:14 21.3 24 20.3
003D3BD0 2019-02-27 18:41:08 21.4 24 20.4
003D3BD0 2019-02-27 18:10:54 21.5 24 20.3
003D3BD0 2019-02-27 17:40:41 21.5 25 20.3
003D3BD0 2019-02-27 17:10:28 21.6 25 20.2
003D3BD0 2019-02-27 16:40:13 21.6 26 18.4
003D3BD0 2019-02-27 16:09:59 21.5 26 18.5
003D3BD0 2019-02-27 15:39:45 21.5 26 18.6
003D3BD0 2019-02-27 15:09:31 21.4 26 18.5
003D3BD0 2019-02-27 14:39:19 21.3 26 18.6
003D3BD0 2019-02-27 14:09:05 21.2 25 18.7
003D3BD0 2019-02-27 13:38:52 21.2 25 19.1
003D3BD0 2019-02-27 13:08:39 21.2 25 19.1
003D3BD0 2019-02-27 12:38:30 21.2 25 19.1
003D3BD0 2019-02-27 12:08:22 21.1 25 20.8
003D3BD0 2019-02-27 11:38:15 21.1 25 21
003D3BD0 2019-02-27 11:08:07 21 25 21.1
003D3BD0 2019-02-27 10:38:02 21 25 21.1
003D3BD0 2019-02-27 10:07:52 20.9 24 21.1
003D3BD0 2019-02-27 09:37:44 20.9 24 21.1
003D3BD0 2019-02-27 09:07:35 20.8 24 21.2
003D3BD0 2019-02-27 08:37:25 20.8 24 21.4
003D3BD0 2019-02-27 08:07:18 20.9 23 21.3
003D3BD0 2019-02-27 07:37:11 20.9 23 21.2
003D3BD0 2019-02-27 07:07:03 20.9 23 21.1
003D3BD0 2019-02-27 06:36:56 20.9 23 22.2
003D3BD0 2019-02-27 06:06:49 20.9 23 22.2
003D3BD0 2019-02-27 05:36:43 20.9 23 22.4
003D3BD0 2019-02-27 05:06:36 20.9 23 22.4
003D3BD0 2019-02-27 04:36:29 21 23 22.4
003D3BD0 2019-02-27 04:06:21 21 23 22.4
003D3BD0 2019-02-27 03:35:33 21 23 22.3
003D3BD0 2019-02-27 03:05:20 21 23 22.3
003D3BD0 2019-02-27 02:35:06 21.1 23 22.3
003D3BD0 2019-02-27 02:04:53 21 23 22.1
003D3BD0 2019-02-27 01:34:39 21.1 23 22.2
003D3BD0 2019-02-27 01:04:25 21.2 23 22.2
003D3BD0 2019-02-27 00:34:13 21.2 24 22.1
003D3BD0 2019-02-27 00:04:03 21.2 24 20.9
003D3BD0 2019-02-26 23:33:51 21.3 24 22
003D3BD0 2019-02-26 23:03:35 21.3 24 22
003D3BD0 2019-02-26 22:33:22 21.4 24 22
003D3BD0 2019-02-26 22:03:08 21.4 24 22
003D3BD0 2019-02-26 21:32:55 21.5 24 22.1
003D3BD0 2019-02-26 21:02:41 21.5 24 22.9
003D3BD0 2019-02-26 20:32:27 21.5 24 23.6
003D3BD0 2019-02-26 20:02:16 21.6 24 24.3
003D3BD0 2019-02-26 19:32:06 21.7 24 24.8
003D3BD0 2019-02-26 19:01:58 21.7 24 25.3
003D3BD0 2019-02-26 18:31:51 21.7 24 25.3
003D3BD0 2019-02-26 18:01:40 21.8 24 25.7
003D3BD0 2019-02-26 17:31:31 21.8 24 26.1
003D3BD0 2019-02-26 17:01:23 21.8 25 26.4
003D3BD0 2019-02-26 16:31:14 21.7 25 26.8
003D3BD0 2019-02-26 16:01:09 21.7 25 27.1
003D3BD0 2019-02-26 15:30:57 21.6 25 27.4
003D3BD0 2019-02-26 15:00:49 21.5 25 27.7
003D3BD0 2019-02-26 14:30:41 21.5 25 28
003D3BD0 2019-02-26 14:00:32 21.4 25 28.2
003D3BD0 2019-02-26 13:30:23 21.4 25 28.5
003D3BD0 2019-02-26 13:00:15 21.4 25 28.7
003D3BD0 2019-02-26 12:30:09 21.3 25 28.7
003D3BD0 2019-02-26 12:00:02 21.2 25 29
003D3BD0 2019-02-26 11:29:54 21.2 25 29.2
003D3BD0 2019-02-26 10:59:48 21.1 24 29.2
003D3BD0 2019-02-26 10:29:42 21 24 29.3
003D3BD0 2019-02-26 09:59:34 20.9 24 29.5
003D3BD0 2019-02-26 09:29:26 20.9 23 29.7
003D3BD0 2019-02-26 08:59:20 20.9 23 29.9
003D3BD0 2019-02-26 08:29:13 20.9 23 29.9
003D3BD0 2019-02-26 07:59:08 20.9 23 29.9
003D3BD0 2019-02-26 07:29:00 20.9 23 29.9
003D3BD0 2019-02-26 06:58:52 20.9 23 29.9
003D3BD0 2019-02-26 06:28:44 20.9 22 29.9
003D3BD0 2019-02-26 05:58:37 20.9 22 29.9
003D3BD0 2019-02-26 05:28:28 20.9 22 29.9
003D3BD0 2019-02-26 04:58:20 20.9 22 29.9
003D3BD0 2019-02-26 04:28:12 20.9 22 29.9
003D3BD0 2019-02-26 03:58:04 21 22 29.7
003D3BD0 2019-02-26 03:27:57 20.9 22 29.7
003D3BD0 2019-02-26 02:57:50 21 22 29.5
003D3BD0 2019-02-26 02:27:11 21 22 29.1
003D3BD0 2019-02-26 01:57:03 21 22 28.9
003D3BD0 2019-02-26 01:26:56 21 21 28.7
003D3BD0 2019-02-26 00:56:51 21.1 21 28.5
003D3BD0 2019-02-26 00:26:43 21.1 21 28.4
003D3BD0 2019-02-25 23:56:37 21.1 21 28.2
003D3BD0 2019-02-25 23:26:32 21.2 21 27.9
003D3BD0 2019-02-25 22:56:21 21.2 21 27.6
003D3BD0 2019-02-25 22:26:08 21.2 21 27.4
003D3BD0 2019-02-25 21:55:56 21.3 21 27
003D3BD0 2019-02-25 21:25:43 21.3 21 26.7
003D3BD0 2019-02-25 20:55:29 21.4 21 26.3
003D3BD0 2019-02-25 20:25:15 21.4 21 26
003D3BD0 2019-02-25 19:55:04 21.4 21 25.6
003D3BD0 2019-02-25 19:24:56 21.5 21 25.1
003D3BD0 2019-02-25 18:54:51 21.5 21 24.5
003D3BD0 2019-02-25 18:24:44 21.6 22 23.9
003D3BD0 2019-02-25 17:54:37 21.6 22 23.3
003D3BD0 2019-02-25 17:24:29 21.6 22 22.4
003D3BD0 2019-02-25 16:54:20 21.6 22 21.4
003D3BD0 2019-02-25 16:24:12 21.6 22 20.1
003D3BD0 2019-02-25 15:54:06 21.6 23 20.3
003D3BD0 2019-02-25 15:24:01 21.5 23 18.3
003D3BD0 2019-02-25 14:53:50 21.4 23 18.3
003D3BD0 2019-02-25 14:23:43 21.3 23 18.3
003D3BD0 2019-02-25 13:53:35 21.2 23 18.3
003D3BD0 2019-02-25 13:23:20 21.1 23 20.2
003D3BD0 2019-02-25 12:53:06 21 22 20.2
003D3BD0 2019-02-25 12:22:53 21 22 20.4
003D3BD0 2019-02-25 11:52:41 21 23 20.6
003D3BD0 2019-02-25 11:22:25 20.9 23 20.6
003D3BD0 2019-02-25 10:52:09 20.8 23 20.6
003D3BD0 2019-02-25 10:21:55 20.7 22 20.6
003D3BD0 2019-02-25 09:51:41 20.6 22 20.6
003D3BD0 2019-02-25 09:21:35 20.6 22 20.8
003D3BD0 2019-02-25 08:51:25 20.6 22 20.6
003D3BD0 2019-02-25 08:21:17 20.6 22 20.5
003D3BD0 2019-02-25 07:51:09 20.6 22 20.4
003D3BD0 2019-02-25 07:21:02 20.6 22 20.6
003D3BD0 2019-02-25 06:50:56 20.6 22 20.4
003D3BD0 2019-02-25 06:20:49 20.6 22 20.5
003D3BD0 2019-02-25 05:50:43 20.6 22 20.4
003D3BD0 2019-02-25 05:20:36 20.6 22 20.4
003D3BD0 2019-02-25 04:50:30 20.6 22 20.3
003D3BD0 2019-02-25 04:20:23 20.6 22 20.3
003D3BD0 2019-02-25 03:50:15 20.6 22 20.4
003D3BD0 2019-02-25 03:20:07 20.6 22 20.4
003D3BD0 2019-02-25 02:49:59 20.6 23 20.4
003D3BD0 2019-02-25 02:19:52 20.7 23 20.3
003D3BD0 2019-02-25 01:49:43 20.9 22 18.5
003D3BD0 2019-02-25 01:48:33 20.6 23 18.6
003D3BD0 2019-02-25 01:18:27 20.6 23 18.5
003D3BD0 2019-02-25 00:48:16 20.7 23 18.5
003D3BD0 2019-02-25 00:18:08 20.7 23 18.3
003D3BD0 2019-02-24 23:48:02 20.7 23 18.2
003D3BD0 2019-02-24 23:17:53 20.7 24 18
003D3BD0 2019-02-24 22:47:49 20.7 24 18
003D3BD0 2019-02-24 22:17:41 20.7 24 18
003D3BD0 2019-02-24 21:47:34 20.7 24 18
003D3BD0 2019-02-24 21:17:27 20.7 24 17.8
003D3BD0 2019-02-24 20:47:20 20.8 24 17.9
003D3BD0 2019-02-24 20:17:16 20.8 24 17.9
003D3BD0 2019-02-24 19:47:10 20.8 23 17.9
003D3BD0 2019-02-24 19:17:07 20.8 23 17.6
003D3BD0 2019-02-24 18:46:58 20.8 23 17.7
003D3BD0 2019-02-24 18:16:49 20.8 23 17.6
003D3BD0 2019-02-24 17:46:44 20.8 23 17.7
003D3BD0 2019-02-24 17:16:37 20.8 23 17.6
003D3BD0 2019-02-24 16:46:29 20.8 23 17.6
003D3BD0 2019-02-24 16:16:23 20.8 23 17.5
003D3BD0 2019-02-24 15:46:15 20.8 23 17.3
003D3BD0 2019-02-24 15:16:10 20.7 23 17.2
003D3BD0 2019-02-24 14:46:03 20.7 22 17.1
003D3BD0 2019-02-24 14:15:56 20.8 22 17.3
003D3BD0 2019-02-24 13:45:48 20.8 22 17.2
003D3BD0 2019-02-24 13:15:41 20.7 22 17.1
003D3BD0 2019-02-24 12:45:34 20.7 22 17.3
003D3BD0 2019-02-24 12:15:30 20.7 22 17
003D3BD0 2019-02-24 11:45:22 20.7 22 16.9
003D3BD0 2019-02-24 11:15:14 20.7 22 16.9
003D3BD0 2019-02-24 10:45:07 20.7 22 17.1
003D3BD0 2019-02-24 10:15:00 20.7 22 17
003D3BD0 2019-02-24 09:44:52 20.8 22 17
003D3BD0 2019-02-24 09:14:44 20.8 22 17.2
003D3BD0 2019-02-24 08:44:37 20.8 22 17.5
003D3BD0 2019-02-24 08:14:31 20.7 22 17.7
003D3BD0 2019-02-24 07:44:23 20.8 22 17.6
003D3BD0 2019-02-24 07:14:18 20.8 22 17.8
003D3BD0 2019-02-24 06:44:10 20.8 21 17.9
003D3BD0 2019-02-24 06:14:02 20.8 21 17.9
003D3BD0 2019-02-24 05:43:55 20.8 21 17.9
003D3BD0 2019-02-24 05:13:48 20.8 21 17.9
003D3BD0 2019-02-24 04:43:40 20.8 21 17.9
003D3BD0 2019-02-24 04:13:33 20.9 21 17.7
003D3BD0 2019-02-24 03:43:25 20.9 21 17.6
003D3BD0 2019-02-24 03:13:18 20.9 21 17.9
003D3BD0 2019-02-24 02:43:10 20.9 21 18.2
003D3BD0 2019-02-24 02:13:03 20.9 21 18.3
003D3BD0 2019-02-24 01:42:58 20.9 21 18.3
003D3BD0 2019-02-24 01:12:50 20.9 21 18.6
003D3BD0 2019-02-24 00:42:10 20.9 21 18.7
003D3BD0 2019-02-24 00:12:03 21 20 18.8
003D3BD0 2019-02-23 23:41:54 21 20 19.1
003D3BD0 2019-02-23 23:11:48 21 20 19.3
003D3BD0 2019-02-23 22:41:43 21 20 19.1
003D3BD0 2019-02-23 22:11:38 21.1 20 19.3
003D3BD0 2019-02-23 21:41:28 21.1 20 19.3
003D3BD0 2019-02-23 21:11:18 21.1 20 19.3
003D3BD0 2019-02-23 20:41:11 21.1 19 19.1
003D3BD0 2019-02-23 20:11:01 21.2 19 19
003D3BD0 2019-02-23 19:40:54 21.2 19 19.1
003D3BD0 2019-02-23 19:10:46 21.2 19 19.1
003D3BD0 2019-02-23 18:40:39 21.2 18 19
003D3BD0 2019-02-23 18:10:33 21.2 18 19.1
003D3BD0 2019-02-23 17:40:25 21.2 18 19.3
003D3BD0 2019-02-23 17:10:18 21.2 17 19.3
003D3BD0 2019-02-23 16:40:15 21.2 17 19.2
003D3BD0 2019-02-23 16:10:06 21.1 17 19.4
003D3BD0 2019-02-23 15:40:02 21 17 19.2
003D3BD0 2019-02-23 15:09:55 20.9 17 19.3
003D3BD0 2019-02-23 14:39:52 20.9 17 19.3
003D3BD0 2019-02-23 14:09:47 20.9 16 19.2
003D3BD0 2019-02-23 13:39:39 20.9 16 18.9
003D3BD0 2019-02-23 13:09:32 20.8 16 18.9
003D3BD0 2019-02-23 12:39:26 20.8 16 19.1
003D3BD0 2019-02-23 12:09:20 20.8 16 19.1
003D3BD0 2019-02-23 11:39:13 20.8 16 18.8
003D3BD0 2019-02-23 11:09:08 20.8 15 18.7
003D3BD0 2019-02-23 10:39:00 20.8 15 18.9
003D3BD0 2019-02-23 10:08:52 20.8 15 18.9
003D3BD0 2019-02-23 09:38:45 20.9 15 18.8
003D3BD0 2019-02-23 09:08:38 20.8 15 18.7
003D3BD0 2019-02-23 08:38:33 20.8 14 19
003D3BD0 2019-02-23 08:08:25 20.8 14 18.7
003D3BD0 2019-02-23 07:38:15 20.8 14 18.8
003D3BD0 2019-02-23 07:08:02 20.8 14 18.7
003D3BD0 2019-02-23 06:37:47 20.8 13 18.8
003D3BD0 2019-02-23 06:07:35 20.8 13 18.8
003D3BD0 2019-02-23 05:37:21 20.8 13 18.6
003D3BD0 2019-02-23 05:07:07 20.8 13 18.6
003D3BD0 2019-02-23 04:36:55 20.8 13 19.1
003D3BD0 2019-02-23 04:06:44 20.8 12 19.2
003D3BD0 2019-02-23 03:36:30 20.8 12 19.2
003D3BD0 2019-02-23 03:06:18 20.8 12 19.1
003D3BD0 2019-02-23 02:36:04 20.8 12 18.8
003D3BD0 2019-02-23 02:05:50 20.8 12 18.7
003D3BD0 2019-02-23 01:35:36 20.9 12 18.8
003D3BD0 2019-02-23 01:05:21 20.9 12 18.7
003D3BD0 2019-02-23 00:35:10 20.9 12 18.5
003D3BD0 2019-02-23 00:05:02 20.9 11 18.4
003D3BD0 2019-02-22 23:34:24 20.9 11 18.4
003D3BD0 2019-02-22 23:04:15 20.9 11 18.6
003D3BD0 2019-02-22 22:34:07 21 11 18.4
003D3BD0 2019-02-22 22:03:59 21 11 18.5
003D3BD0 2019-02-22 21:33:50 21 11 18.8
003D3BD0 2019-02-22 21:03:42 21.1 11 18.8
003D3BD0 2019-02-22 20:33:36 21.1 11 18.9
003D3BD0 2019-02-22 20:03:30 21.1 11 18.9
003D3BD0 2019-02-22 19:33:22 21.1 11 18.8
003D3BD0 2019-02-22 19:03:16 21.1 11 19
003D3BD0 2019-02-22 18:33:06 21.2 11 19.1
003D3BD0 2019-02-22 18:02:58 21.2 11 18.9
003D3BD0 2019-02-22 17:32:49 21.2 11 19.1
003D3BD0 2019-02-22 17:02:41 21.2 11 19.2
003D3BD0 2019-02-22 16:32:36 21.1 12 19
003D3BD0 2019-02-22 16:02:27 21.1 12 19
003D3BD0 2019-02-22 15:32:19 21 12 18.9
003D3BD0 2019-02-22 15:02:09 20.9 12 19.3
003D3BD0 2019-02-22 14:31:52 20.8 12 19.2
003D3BD0 2019-02-22 14:01:39 20.8 12 19.4
003D3BD0 2019-02-22 13:31:25 20.7 12 19.7
003D3BD0 2019-02-22 13:01:15 20.7 12 19.9
003D3BD0 2019-02-22 12:31:10 20.7 12 19.8
003D3BD0 2019-02-22 12:01:03 20.6 12 19.7
003D3BD0 2019-02-22 11:30:56 20.6 12 20
003D3BD0 2019-02-22 11:00:49 20.5 12 20
003D3BD0 2019-02-22 10:30:43 20.5 12 20.1
003D3BD0 2019-02-22 10:00:35 20.5 12 19.9
003D3BD0 2019-02-22 09:30:29 20.4 12 19.8
003D3BD0 2019-02-22 09:00:21 20.4 12 19.8
003D3BD0 2019-02-22 08:30:13 20.5 13 19.6
003D3BD0 2019-02-22 08:00:08 20.5 13 20
003D3BD0 2019-02-22 07:30:01 20.5 13 19.8
003D3BD0 2019-02-22 06:59:56 20.5 13 19.9
003D3BD0 2019-02-22 06:29:48 20.5 13 19.7
003D3BD0 2019-02-22 05:59:43 20.5 13 19.8
003D3BD0 2019-02-22 05:29:36 20.5 13 19.9
003D3BD0 2019-02-22 04:59:31 20.6 13 19.8
003D3BD0 2019-02-22 04:29:24 20.5 13 19.8
003D3BD0 2019-02-22 03:59:18 20.5 13 19.7
003D3BD0 2019-02-22 03:29:10 20.6 13 19.6
003D3BD0 2019-02-22 02:59:04 20.6 13 19.3
003D3BD0 2019-02-22 02:28:57 20.6 13 19.3
003D3BD0 2019-02-22 01:58:52 20.6 13 20.7
003D3BD0 2019-02-22 01:28:45 20.6 13 21.8
003D3BD0 2019-02-22 00:58:38 20.7 13 22.8
003D3BD0 2019-02-22 00:28:33 20.7 13 23.5
003D3BD0 2019-02-21 23:58:26 20.7 13 24.2
003D3BD0 2019-02-21 23:28:19 20.7 13 24.8
003D3BD0 2019-02-21 22:58:12 21 13 24.7
003D3BD0 2019-02-21 22:57:02 20.7 13 24.7
003D3BD0 2019-02-21 22:26:54 20.8 13 24.6
003D3BD0 2019-02-21 21:56:46 20.8 13 24.6
003D3BD0 2019-02-21 21:26:39 20.8 13 24.5
003D3BD0 2019-02-21 20:56:31 20.9 13 24.5
003D3BD0 2019-02-21 20:26:25 20.9 13 24.5
003D3BD0 2019-02-21 19:56:18 20.9 13 24.3
003D3BD0 2019-02-21 19:26:11 21 13 24.4
003D3BD0 2019-02-21 18:56:03 21 13 24.3
003D3BD0 2019-02-21 18:25:56 21.1 13 24.3
003D3BD0 2019-02-21 17:55:47 21.1 14 24.2
003D3BD0 2019-02-21 17:25:43 21.1 14 24.2
003D3BD0 2019-02-21 16:55:35 21 14 24.1
003D3BD0 2019-02-21 16:25:28 20.9 14 24
003D3BD0 2019-02-21 15:55:21 20.8 13 24.1
003D3BD0 2019-02-21 15:25:12 20.7 13 24.1
003D3BD0 2019-02-21 14:55:05 20.7 14 24.1
003D3BD0 2019-02-21 14:25:00 20.6 14 24.1
003D3BD0 2019-02-21 13:54:52 20.6 14 23.4
003D3BD0 2019-02-21 13:24:45 20.6 14 22.5
003D3BD0 2019-02-21 12:54:39 20.6 15 21.4
003D3BD0 2019-02-21 12:24:33 20.6 15 20
003D3BD0 2019-02-21 11:54:24 20.6 15 17.8
003D3BD0 2019-02-21 11:24:18 20.6 15 13.2
003D3BD0 2019-02-21 10:24:09 20.6 16 13.3
003D3BD0 2019-02-21 09:53:59 20.5 16 13.5
003D3BD0 2019-02-21 09:23:51 20.6 16 13.7
003D3BD0 2019-02-21 08:53:48 20.6 16 13.7
003D3BD0 2019-02-21 08:23:41 20.5 17 13.8
003D3BD0 2019-02-21 07:53:31 20.6 17 13.7
003D3BD0 2019-02-21 07:23:23 20.6 17 13.4
003D3BD0 2019-02-21 06:53:15 20.6 17 13.7
003D3BD0 2019-02-21 06:23:12 20.6 18 13.5
003D3BD0 2019-02-21 05:22:57 20.6 18 13.5
003D3BD0 2019-02-21 04:52:52 20.6 18 13.6
003D3BD0 2019-02-21 04:22:45 20.7 18 13.8
003D3BD0 2019-02-21 03:52:36 20.7 18 13.6
003D3BD0 2019-02-21 02:52:12 20.7 19 13.4
003D3BD0 2019-02-21 02:21:56 20.7 19 13.2
003D3BD0 2019-02-21 01:51:45 20.7 19 17.7
003D3BD0 2019-02-21 01:21:31 20.7 19 17.6
003D3BD0 2019-02-21 00:51:25 20.7 19 17.8
003D3BD0 2019-02-21 00:21:09 20.7 19 20
003D3BD0 2019-02-20 23:20:47 20.7 19 20
003D3BD0 2019-02-20 22:50:32 20.8 20 21.4
003D3BD0 2019-02-20 22:20:22 21 19 21.4
003D3BD0 2019-02-20 22:19:11 20.7 20 21.4
003D3BD0 2019-02-20 21:48:59 20.7 20 22.5
003D3BD0 2019-02-20 21:18:46 20.7 20 22.6
003D3BD0 2019-02-20 20:48:33 20.7 20 22.6
003D3BD0 2019-02-20 20:18:22 20.7 20 22.7
003D3BD0 2019-02-20 19:48:09 20.7 20 22.7
003D3BD0 2019-02-20 19:17:56 20.8 20 22.7
003D3BD0 2019-02-20 18:47:43 20.8 20 22.7
003D3BD0 2019-02-20 18:17:32 20.8 21 22.8
003D3BD0 2019-02-20 17:47:24 20.8 21 22.8
003D3BD0 2019-02-20 16:47:16 20.8 22 22.8
003D3BD0 2019-02-20 16:17:05 20.8 22 22.8
003D3BD0 2019-02-20 15:47:01 20.8 22 22.9
003D3BD0 2019-02-20 15:16:56 20.8 23 22.9
003D3BD0 2019-02-20 14:16:35 20.8 24 23